Observation data for McCamey on 01/15/2019      Previous  Date  Next       Current Mesonet Observations  Soil Data  Daily Summary Page  Observations in Plain Language
KMC4 150600Z 19002KT 07/04 A3031 RMK A01 T00680036  RH  080%=      5-min Rain = 0
KMC4 150601Z 18002KT 07/04 A3031 RMK A01 T00680036  RH  080%=      5-min Rain = 0
KMC4 150602Z 18002KT 07/04 A3031 RMK A01 T00670036  RH  080%=      5-min Rain = 0
KMC4 150603Z 18003KT 07/04 A3031 RMK A01 T00670036  RH  080%=      5-min Rain = 0
KMC4 150604Z 18002KT 07/04 A3031 RMK A01 T00670036  RH  080%=      5-min Rain = 0
KMC4 150605Z 19002KT 07/04 A3031 RMK A01 T00670036  RH  081%=      5-min Rain = 0
KMC4 150606Z 18002KT 07/04 A3031 RMK A01 T00680036  RH  080%=      5-min Rain = 0
KMC4 150607Z 19002KT 07/04 A3031 RMK A01 T00680036  RH  080%=      5-min Rain = 0
KMC4 150608Z 18002KT 07/04 A3031 RMK A01 T00670036  RH  081%=      5-min Rain = 0
KMC4 150609Z 18003KT 07/04 A3031 RMK A01 T00670036  RH  081%=      5-min Rain = 0
KMC4 150610Z 18002KT 07/04 A3031 RMK A01 T00670036  RH  080%=      5-min Rain = 0
KMC4 150611Z 18002KT 07/04 A3031 RMK A01 T00670036  RH  080%=      5-min Rain = 0
KMC4 150612Z 18002KT 07/04 A3031 RMK A01 T00670036  RH  080%=      5-min Rain = 0
KMC4 150613Z 18002KT 07/04 A3031 RMK A01 T00670036  RH  081%=      5-min Rain = 0
KMC4 150614Z 17002KT 07/04 A3031 RMK A01 T00670036  RH  081%=      5-min Rain = 0
KMC4 150615Z 17002KT 07/04 A3031 RMK A01 T00670036  RH  081%=      5-min Rain = 0
KMC4 150616Z 17001KT 07/04 A3031 RMK A01 T00670036  RH  081%=      5-min Rain = 0
KMC4 150617Z 17001KT 07/04 A3031 RMK A01 T00670036  RH  081%=      5-min Rain = 0
KMC4 150618Z 17001KT 07/04 A3031 RMK A01 T00670036  RH  081%=      5-min Rain = 0
KMC4 150619Z 17001KT 07/04 A3031 RMK A01 T00670036  RH  081%=      5-min Rain = 0
KMC4 150620Z 16001KT 07/04 A3031 RMK A01 T00670036  RH  081%=      5-min Rain = 0
KMC4 150621Z 16001KT 07/04 A303 RMK A01 T00660036  RH  081%=      5-min Rain = 0
KMC4 150622Z 16001KT 07/04 A303 RMK A01 T00670036  RH  081%=      5-min Rain = 0
KMC4 150623Z 15001KT 07/04 A303 RMK A01 T00670037  RH  081%=      5-min Rain = 0
KMC4 150624Z 15001KT 07/04 A303 RMK A01 T00660037  RH  081%=      5-min Rain = 0
KMC4 150625Z 15001KT 07/04 A303 RMK A01 T00660037  RH  082%=      5-min Rain = 0
KMC4 150626Z 15001KT 07/04 A303 RMK A01 T00660037  RH  082%=      5-min Rain = 0
KMC4 150627Z 15001KT 07/04 A303 RMK A01 T00660038  RH  082%=      5-min Rain = 0
KMC4 150628Z 15001KT 07/04 A303 RMK A01 T00660038  RH  082%=      5-min Rain = 0
KMC4 150629Z 15001KT 07/04 A303 RMK A01 T00660037  RH  082%=      5-min Rain = 0
KMC4 150630Z 15000KT 07/04 A303 RMK A01 T00660037  RH  082%=      5-min Rain = 0
KMC4 150631Z 18000KT 07/04 A303 RMK A01 T00660037  RH  082%=      5-min Rain = 0
KMC4 150632Z 18000KT 07/04 A303 RMK A01 T00660037  RH  082%=      5-min Rain = 0
KMC4 150633Z 00000KT 07/04 A303 RMK A01 T00660037  RH  082%=      5-min Rain = 0
KMC4 150634Z 18000KT 07/04 A303 RMK A01 T00660037  RH  082%=      5-min Rain = 0
KMC4 150635Z 18000KT 07/04 A303 RMK A01 T00660037  RH  082%=      5-min Rain = 0
KMC4 150636Z 18000KT 07/04 A303 RMK A01 T00660037  RH  082%=      5-min Rain = 0
KMC4 150637Z 17001KT 07/04 A303 RMK A01 T00660037  RH  082%=      5-min Rain = 0
KMC4 150638Z 15001KT 07/04 A303 RMK A01 T00660036  RH  081%=      5-min Rain = 0
KMC4 150639Z 13000KT 07/04 A303 RMK A01 T00660036  RH  081%=      5-min Rain = 0
KMC4 150640Z 13000KT 07/04 A303 RMK A01 T00660036  RH  082%=      5-min Rain = 0
KMC4 150641Z 00000KT 07/04 A303 RMK A01 T00660036  RH  081%=      5-min Rain = 0
KMC4 150642Z 14001KT 07/04 A303 RMK A01 T00660036  RH  081%=      5-min Rain = 0
KMC4 150643Z 14001KT 07/04 A3029 RMK A01 T00660036  RH  081%=      5-min Rain = 0
KMC4 150644Z 14001KT 07/04 A3029 RMK A01 T00660037  RH  082%=      5-min Rain = 0
KMC4 150645Z 14001KT 07/04 A3029 RMK A01 T00660037  RH  082%=      5-min Rain = 0
KMC4 150646Z 14001KT 07/04 A3029 RMK A01 T00660038  RH  082%=      5-min Rain = 0
KMC4 150647Z 14001KT 07/04 A3029 RMK A01 T00660038  RH  082%=      5-min Rain = 0
KMC4 150648Z 14001KT 07/04 A3029 RMK A01 T00660038  RH  083%=      5-min Rain = 0
KMC4 150649Z 14000KT 07/04 A3029 RMK A01 T00660038  RH  082%=      5-min Rain = 0
KMC4 150650Z 14000KT 07/04 A3029 RMK A01 T00660038  RH  082%=      5-min Rain = 0
KMC4 150651Z 13001KT 07/04 A3029 RMK A01 T00660038  RH  082%=      5-min Rain = 0
KMC4 150652Z 12001KT 07/04 A3029 RMK A01 T00660038  RH  082%=      5-min Rain = 0
KMC4 150653Z 12001KT 07/04 A3029 RMK A01 T00660038  RH  082%=      5-min Rain = 0
KMC4 150654Z 12001KT 07/04 A3029 RMK A01 T00660037  RH  082%=      5-min Rain = 0
KMC4 150655Z 13001KT 07/04 A3029 RMK A01 T00660038  RH  082%=      5-min Rain = 0
KMC4 150656Z 14001KT 07/04 A3029 RMK A01 T00660038  RH  083%=      5-min Rain = 0
KMC4 150657Z 13001KT 07/04 A3029 RMK A01 T00660038  RH  082%=      5-min Rain = 0
KMC4 150658Z 13001KT 07/04 A3029 RMK A01 T00650037  RH  082%=      5-min Rain = 0
KMC4 150659Z 14001KT 07/04 A3029 RMK A01 T00650037  RH  082%=      5-min Rain = 0
KMC4 150700Z 14002KT 07/04 A3029 RMK A01 T00650037  RH  082%=      5-min Rain = 0
KMC4 150701Z 15002KT 07/04 A3029 RMK A01 T00650037  RH  082%=      5-min Rain = 0
KMC4 150702Z 15002KT 07/04 A3029 RMK A01 T00650036  RH  082%=      5-min Rain = 0
KMC4 150703Z 17002KT 07/04 A3029 RMK A01 T00650037  RH  082%=      5-min Rain = 0
KMC4 150704Z 14001KT 07/04 A3029 RMK A01 T00650037  RH  082%=      5-min Rain = 0
KMC4 150705Z 14001KT 07/04 A3029 RMK A01 T00650037  RH  082%=      5-min Rain = 0
KMC4 150706Z 16001KT 07/04 A3029 RMK A01 T00650037  RH  082%=      5-min Rain = 0
KMC4 150707Z 16000KT 07/04 A3029 RMK A01 T00650038  RH  083%=      5-min Rain = 0
KMC4 150708Z 16001KT 07/04 A3029 RMK A01 T00650038  RH  083%=      5-min Rain = 0
KMC4 150709Z 16001KT 07/04 A3029 RMK A01 T00650037  RH  083%=      5-min Rain = 0
KMC4 150710Z 18001KT 07/04 A3029 RMK A01 T00650038  RH  082%=      5-min Rain = 0
KMC4 150711Z 19001KT 07/04 A3029 RMK A01 T00650038  RH  083%=      5-min Rain = 0
KMC4 150712Z 19001KT 07/04 A3029 RMK A01 T00650038  RH  083%=      5-min Rain = 0
KMC4 150713Z 18001KT 07/04 A3029 RMK A01 T00650038  RH  083%=      5-min Rain = 0
KMC4 150714Z 18001KT 07/04 A3029 RMK A01 T00650038  RH  083%=      5-min Rain = 0
KMC4 150715Z 18001KT 07/04 A3029 RMK A01 T00650038  RH  083%=      5-min Rain = 0
KMC4 150716Z 17001KT 07/04 A3029 RMK A01 T00650038  RH  083%=      5-min Rain = 0
KMC4 150717Z 16002KT 07/04 A3029 RMK A01 T00650038  RH  083%=      5-min Rain = 0
KMC4 150718Z 16002KT 07/04 A3029 RMK A01 T00650038  RH  083%=      5-min Rain = 0
KMC4 150719Z 17002KT 07/04 A3029 RMK A01 T00650038  RH  083%=      5-min Rain = 0
KMC4 150720Z 18002KT 07/04 A3029 RMK A01 T00650038  RH  083%=      5-min Rain = 0
KMC4 150721Z 18002KT 07/04 A3029 RMK A01 T00650038  RH  083%=      5-min Rain = 0
KMC4 150722Z 17002KT 07/04 A3029 RMK A01 T00650038  RH  083%=      5-min Rain = 0
KMC4 150723Z 17002KT 07/04 A3029 RMK A01 T00650038  RH  083%=      5-min Rain = 0
KMC4 150724Z 16002KT 07/04 A3029 RMK A01 T00650038  RH  083%=      5-min Rain = 0
KMC4 150725Z 16002KT 07/04 A3029 RMK A01 T00650038  RH  083%=      5-min Rain = 0
KMC4 150726Z 16002KT 06/04 A3029 RMK A01 T00640038  RH  084%=      5-min Rain = 0
KMC4 150727Z 17002KT 06/04 A3029 RMK A01 T00640039  RH  084%=      5-min Rain = 0
KMC4 150728Z 17002KT 06/04 A3029 RMK A01 T00640040  RH  084%=      5-min Rain = 0
KMC4 150729Z 16002KT 06/04 A3029 RMK A01 T00640039  RH  084%=      5-min Rain = 0
KMC4 150730Z 16001KT 06/04 A3029 RMK A01 T00640039  RH  084%=      5-min Rain = 0
KMC4 150731Z 14002KT 06/04 A3029 RMK A01 T00640039  RH  084%=      5-min Rain = 0
KMC4 150732Z 15002KT 06/04 A3029 RMK A01 T00640040  RH  084%=      5-min Rain = 0
KMC4 150733Z 14002KT 06/04 A3029 RMK A01 T00640041  RH  085%=      5-min Rain = 0
KMC4 150734Z 14002KT 06/04 A3029 RMK A01 T00640040  RH  085%=      5-min Rain = 0
KMC4 150735Z 14001KT 06/04 A3029 RMK A01 T00640039  RH  084%=      5-min Rain = 0
KMC4 150736Z 14001KT 06/04 A3029 RMK A01 T00640041  RH  085%=      5-min Rain = 0
KMC4 150737Z 14002KT 06/04 A3029 RMK A01 T00640041  RH  085%=      5-min Rain = 0
KMC4 150738Z 14002KT 06/04 A3029 RMK A01 T00640041  RH  085%=      5-min Rain = 0
KMC4 150739Z 16001KT 06/04 A3029 RMK A01 T00640040  RH  085%=      5-min Rain = 0
KMC4 150740Z 17002KT 06/04 A3029 RMK A01 T00640040  RH  085%=      5-min Rain = 0
KMC4 150741Z 16002KT 06/04 A3029 RMK A01 T00640039  RH  084%=      5-min Rain = 0
KMC4 150742Z 14001KT 06/04 A3029 RMK A01 T00640039  RH  084%=      5-min Rain = 0
KMC4 150743Z 15002KT 06/04 A3029 RMK A01 T00640039  RH  084%=      5-min Rain = 0
KMC4 150744Z 14002KT 06/04 A3029 RMK A01 T00640039  RH  084%=      5-min Rain = 0
KMC4 150745Z 15003KT 06/04 A3029 RMK A01 T00640039  RH  084%=      5-min Rain = 0
KMC4 150746Z 15003KT 06/04 A3029 RMK A01 T00640038  RH  083%=      5-min Rain = 0
KMC4 150747Z 15003KT 06/04 A3028 RMK A01 T00640037  RH  083%=      5-min Rain = 0
KMC4 150748Z 15003KT 06/04 A3028 RMK A01 T00640038  RH  083%=      5-min Rain = 0
KMC4 150749Z 15002KT 06/04 A3029 RMK A01 T00640038  RH  083%=      5-min Rain = 0
KMC4 150750Z 15003KT 06/04 A3029 RMK A01 T00640039  RH  084%=      5-min Rain = 0
KMC4 150751Z 15003KT 06/04 A3029 RMK A01 T00640039  RH  084%=      5-min Rain = 0
KMC4 150752Z 14002KT 07/04 A3029 RMK A01 T00650039  RH  084%=      5-min Rain = 0
KMC4 150753Z 14003KT 06/04 A3029 RMK A01 T00640038  RH  084%=      5-min Rain = 0
KMC4 150754Z 14003KT 06/04 A3029 RMK A01 T00640040  RH  084%=      5-min Rain = 0
KMC4 150755Z 15003KT 06/04 A3029 RMK A01 T00640039  RH  084%=      5-min Rain = 0
KMC4 150756Z 15003KT 06/04 A3029 RMK A01 T00640039  RH  084%=      5-min Rain = 0
KMC4 150757Z 15003KT 06/04 A3029 RMK A01 T00640039  RH  084%=      5-min Rain = 0
KMC4 150758Z 15003KT 07/04 A3029 RMK A01 T00650040  RH  084%=      5-min Rain = 0
KMC4 150759Z 15002KT 06/04 A3029 RMK A01 T00640040  RH  084%=      5-min Rain = 0
KMC4 150800Z 14002KT 06/04 A3029 RMK A01 T00640040  RH  084%=      5-min Rain = 0
KMC4 150801Z 15003KT 06/04 A3028 RMK A01 T00640040  RH  084%=      5-min Rain = 0
KMC4 150802Z 15003KT 06/04 A3028 RMK A01 T00640040  RH  085%=      5-min Rain = 0
KMC4 150803Z 15002KT 06/04 A3028 RMK A01 T00640040  RH  085%=      5-min Rain = 0
KMC4 150804Z 14002KT 06/04 A3028 RMK A01 T00640040  RH  084%=      5-min Rain = 0
KMC4 150805Z 14001KT 06/04 A3028 RMK A01 T00640039  RH  084%=      5-min Rain = 0
KMC4 150806Z 15002KT 06/04 A3028 RMK A01 T00640039  RH  084%=      5-min Rain = 0
KMC4 150807Z 13002KT 06/04 A3028 RMK A01 T00640039  RH  084%=      5-min Rain = 0
KMC4 150808Z 14003KT 06/04 A3028 RMK A01 T00640039  RH  084%=      5-min Rain = 0
KMC4 150809Z 14003KT 06/04 A3028 RMK A01 T00640039  RH  084%=      5-min Rain = 0
KMC4 150810Z 15002KT 06/04 A3028 RMK A01 T00640038  RH  084%=      5-min Rain = 0
KMC4 150811Z 16003KT 06/04 A3028 RMK A01 T00640038  RH  084%=      5-min Rain = 0
KMC4 150812Z 14003KT 06/04 A3028 RMK A01 T00640038  RH  084%=      5-min Rain = 0
KMC4 150813Z 14003KT 06/04 A3028 RMK A01 T00640038  RH  084%=      5-min Rain = 0
KMC4 150814Z 14003KT 06/04 A3028 RMK A01 T00640038  RH  084%=      5-min Rain = 0
KMC4 150815Z 14003KT 06/04 A3028 RMK A01 T00640039  RH  084%=      5-min Rain = 0
KMC4 150816Z 16003KT 06/04 A3028 RMK A01 T00640039  RH  084%=      5-min Rain = 0
KMC4 150817Z 16002KT 06/04 A3028 RMK A01 T00640039  RH  084%=      5-min Rain = 0
KMC4 150818Z 15002KT 06/04 A3028 RMK A01 T00640038  RH  084%=      5-min Rain = 0
KMC4 150819Z 15003KT 06/04 A3028 RMK A01 T00640038  RH  084%=      5-min Rain = 0
KMC4 150820Z 15002KT 06/04 A3028 RMK A01 T00640038  RH  083%=      5-min Rain = 0
KMC4 150821Z 16002KT 06/04 A3028 RMK A01 T00640038  RH  083%=      5-min Rain = 0
KMC4 150822Z 16002KT 06/04 A3028 RMK A01 T00640038  RH  084%=      5-min Rain = 0
KMC4 150823Z 17002KT 06/04 A3028 RMK A01 T00640038  RH  084%=      5-min Rain = 0
KMC4 150824Z 17002KT 06/04 A3028 RMK A01 T00640038  RH  083%=      5-min Rain = 0
KMC4 150825Z 17003KT 06/04 A3028 RMK A01 T00640038  RH  083%=      5-min Rain = 0
KMC4 150826Z 17003KT 06/04 A3028 RMK A01 T00640038  RH  084%=      5-min Rain = 0
KMC4 150827Z 17003KT 06/04 A3028 RMK A01 T00640038  RH  084%=      5-min Rain = 0
KMC4 150828Z 17003KT 06/04 A3028 RMK A01 T00640038  RH  084%=      5-min Rain = 0
KMC4 150829Z 17003KT 06/04 A3028 RMK A01 T00640038  RH  084%=      5-min Rain = 0
KMC4 150830Z 17003KT 06/04 A3028 RMK A01 T00640038  RH  083%=      5-min Rain = 0
KMC4 150831Z 17003KT 06/04 A3028 RMK A01 T00640037  RH  083%=      5-min Rain = 0
KMC4 150832Z 17003KT 06/04 A3028 RMK A01 T00640037  RH  083%=      5-min Rain = 0
KMC4 150833Z 17003KT 06/04 A3028 RMK A01 T00640037  RH  083%=      5-min Rain = 0
KMC4 150834Z 17003KT 06/04 A3028 RMK A01 T00640038  RH  083%=      5-min Rain = 0
KMC4 150835Z 17003KT 06/04 A3028 RMK A01 T00640038  RH  084%=      5-min Rain = 0
KMC4 150836Z 17003KT 06/04 A3028 RMK A01 T00640038  RH  084%=      5-min Rain = 0
KMC4 150837Z 16003KT 06/04 A3028 RMK A01 T00640038  RH  084%=      5-min Rain = 0
KMC4 150838Z 16002KT 06/04 A3028 RMK A01 T00640038  RH  084%=      5-min Rain = 0
KMC4 150839Z 17003KT 06/04 A3028 RMK A01 T00640038  RH  084%=      5-min Rain = 0
KMC4 150840Z 17003KT 06/04 A3028 RMK A01 T00640039  RH  084%=      5-min Rain = 0
KMC4 150841Z 17003KT 06/04 A3028 RMK A01 T00640039  RH  084%=      5-min Rain = 0
KMC4 150842Z 17002KT 06/04 A3028 RMK A01 T00640039  RH  084%=      5-min Rain = 0
KMC4 150843Z 18003KT 06/04 A3028 RMK A01 T00640039  RH  084%=      5-min Rain = 0
KMC4 150844Z 18003KT 06/04 A3029 RMK A01 T00640039  RH  084%=      5-min Rain = 0
KMC4 150845Z 18003KT 06/04 A3029 RMK A01 T00640039  RH  084%=      5-min Rain = 0
KMC4 150846Z 19004KT 06/04 A3029 RMK A01 T00640039  RH  084%=      5-min Rain = 0
KMC4 150847Z 19004KT 06/04 A3029 RMK A01 T00640039  RH  084%=      5-min Rain = 0
KMC4 150848Z 19004KT 06/04 A3029 RMK A01 T00640039  RH  084%=      5-min Rain = 0
KMC4 150849Z 19004KT 06/04 A3029 RMK A01 T00640039  RH  084%=      5-min Rain = 0
KMC4 150850Z 19003KT 06/04 A3029 RMK A01 T00630039  RH  084%=      5-min Rain = 0
KMC4 150851Z 17003KT 06/04 A3029 RMK A01 T00630039  RH  085%=      5-min Rain = 0
KMC4 150852Z 15003KT 06/04 A3029 RMK A01 T00630039  RH  084%=      5-min Rain = 0
KMC4 150853Z 16003KT 06/04 A3029 RMK A01 T00630039  RH  084%=      5-min Rain = 0
KMC4 150854Z 16004KT 06/04 A3028 RMK A01 T00630039  RH  084%=      5-min Rain = 0
KMC4 150855Z 17003KT 06/04 A3028 RMK A01 T00630039  RH  084%=      5-min Rain = 0
KMC4 150856Z 16003KT 06/04 A3028 RMK A01 T00630038  RH  084%=      5-min Rain = 0
KMC4 150857Z 16003KT 06/04 A3028 RMK A01 T00630039  RH  084%=      5-min Rain = 0
KMC4 150858Z 17004KT 06/04 A3028 RMK A01 T00630038  RH  084%=      5-min Rain = 0
KMC4 150859Z 16003KT 06/04 A3028 RMK A01 T00630038  RH  084%=      5-min Rain = 0
KMC4 150900Z 16004KT 06/04 A3028 RMK A01 T00640039  RH  084%=      5-min Rain = 0
KMC4 150901Z 17004KT 06/04 A3028 RMK A01 T00630039  RH  084%=      5-min Rain = 0
KMC4 150902Z 17004KT 06/04 A3028 RMK A01 T00630039  RH  084%=      5-min Rain = 0
KMC4 150903Z 18004KT 06/04 A3028 RMK A01 T00630039  RH  085%=      5-min Rain = 0
KMC4 150904Z 18003KT 06/04 A3028 RMK A01 T00640040  RH  085%=      5-min Rain = 0
KMC4 150905Z 18004KT 06/04 A3028 RMK A01 T00630040  RH  085%=      5-min Rain = 0
KMC4 150906Z 19003KT 06/04 A3028 RMK A01 T00630039  RH  085%=      5-min Rain = 0
KMC4 150907Z 18002KT 06/04 A3028 RMK A01 T00630039  RH  085%=      5-min Rain = 0
KMC4 150908Z 17002KT 06/04 A3028 RMK A01 T00630040  RH  085%=      5-min Rain = 0
KMC4 150909Z 17003KT 06/04 A3028 RMK A01 T00630040  RH  085%=      5-min Rain = 0
KMC4 150910Z 17003KT 06/04 A3028 RMK A01 T00630040  RH  085%=      5-min Rain = 0
KMC4 150911Z 16003KT 06/04 A3028 RMK A01 T00630040  RH  085%=      5-min Rain = 0
KMC4 150912Z 16003KT 06/04 A3028 RMK A01 T00630040  RH  085%=      5-min Rain = 0
KMC4 150913Z 17003KT 06/04 A3028 RMK A01 T00630040  RH  085%=      5-min Rain = 0
KMC4 150914Z 18004KT 06/04 A3028 RMK A01 T00630040  RH  085%=      5-min Rain = 0
KMC4 150915Z 19003KT 06/04 A3029 RMK A01 T00630039  RH  085%=      5-min Rain = 0
KMC4 150916Z 19004KT 06/04 A3029 RMK A01 T00630039  RH  085%=      5-min Rain = 0
KMC4 150917Z 18003KT 06/04 A3029 RMK A01 T00630039  RH  085%=      5-min Rain = 0
KMC4 150918Z 18003KT 06/04 A3029 RMK A01 T00630040  RH  085%=      5-min Rain = 0
KMC4 150919Z 18003KT 06/04 A3029 RMK A01 T00630040  RH  085%=      5-min Rain = 0
KMC4 150920Z 18003KT 06/04 A3028 RMK A01 T00630040  RH  085%=      5-min Rain = 0
KMC4 150921Z 18003KT 06/04 A3029 RMK A01 T00620039  RH  085%=      5-min Rain = 0
KMC4 150922Z 17003KT 06/04 A3029 RMK A01 T00620039  RH  085%=      5-min Rain = 0
KMC4 150923Z 18002KT 06/04 A3029 RMK A01 T00620039  RH  085%=      5-min Rain = 0
KMC4 150924Z 17003KT 06/04 A3028 RMK A01 T00630040  RH  085%=      5-min Rain = 0
KMC4 150925Z 19002KT 06/04 A3028 RMK A01 T00620039  RH  085%=      5-min Rain = 0
KMC4 150926Z 19003KT 06/04 A3028 RMK A01 T00620039  RH  085%=      5-min Rain = 0
KMC4 150927Z 18003KT 06/04 A3028 RMK A01 T00630040  RH  085%=      5-min Rain = 0
KMC4 150928Z 18002KT 06/04 A3028 RMK A01 T00630040  RH  085%=      5-min Rain = 0
KMC4 150929Z 18002KT 06/04 A3028 RMK A01 T00620040  RH  085%=      5-min Rain = 0
KMC4 150930Z 17002KT 06/04 A3028 RMK A01 T00630040  RH  085%=      5-min Rain = 0
KMC4 150931Z 16003KT 06/04 A3028 RMK A01 T00620039  RH  085%=      5-min Rain = 0
KMC4 150932Z 16003KT 06/04 A3028 RMK A01 T00630040  RH  085%=      5-min Rain = 0
KMC4 150933Z 17003KT 06/04 A3028 RMK A01 T00620040  RH  085%=      5-min Rain = 0
KMC4 150934Z 17003KT 06/04 A3028 RMK A01 T00630040  RH  086%=      5-min Rain = 0
KMC4 150935Z 17003KT 06/04 A3028 RMK A01 T00620040  RH  086%=      5-min Rain = 0
KMC4 150936Z 17003KT 06/04 A3028 RMK A01 T00620040  RH  085%=      5-min Rain = 0
KMC4 150937Z 17003KT 06/04 A3028 RMK A01 T00630040  RH  085%=      5-min Rain = 0
KMC4 150938Z 17003KT 06/04 A3028 RMK A01 T00620040  RH  085%=      5-min Rain = 0
KMC4 150939Z 17003KT 06/04 A3028 RMK A01 T00620040  RH  086%=      5-min Rain = 0
KMC4 150940Z 17003KT 06/04 A3028 RMK A01 T00620040  RH  086%=      5-min Rain = 0
KMC4 150941Z 17003KT 06/04 A3028 RMK A01 T00620040  RH  086%=      5-min Rain = 0
KMC4 150942Z 16003KT 06/04 A3028 RMK A01 T00620040  RH  086%=      5-min Rain = 0
KMC4 150943Z 17004KT 06/04 A3028 RMK A01 T00620040  RH  086%=      5-min Rain = 0
KMC4 150944Z 17003KT 06/04 A3028 RMK A01 T00620039  RH  086%=      5-min Rain = 0
KMC4 150945Z 17003KT 06/04 A3028 RMK A01 T00620039  RH  085%=      5-min Rain = 0
KMC4 150946Z 17003KT 06/04 A3028 RMK A01 T00620039  RH  085%=      5-min Rain = 0
KMC4 150947Z 16004KT 06/04 A3028 RMK A01 T00620040  RH  086%=      5-min Rain = 0
KMC4 150948Z 17005KT 06/04 A3028 RMK A01 T00620040  RH  086%=      5-min Rain = 0
KMC4 150949Z 17004KT 06/04 A3028 RMK A01 T00620039  RH  085%=      5-min Rain = 0
KMC4 150950Z 17004KT 06/04 A3028 RMK A01 T00620039  RH  085%=      5-min Rain = 0
KMC4 150951Z 16004KT 06/04 A3028 RMK A01 T00620039  RH  085%=      5-min Rain = 0
KMC4 150952Z 16004KT 06/04 A3028 RMK A01 T00620039  RH  085%=      5-min Rain = 0
KMC4 150953Z 15003KT 06/04 A3028 RMK A01 T00620040  RH  086%=      5-min Rain = 0
KMC4 150954Z 15004KT 06/04 A3028 RMK A01 T00620040  RH  086%=      5-min Rain = 0
KMC4 150955Z 15003KT 06/04 A3028 RMK A01 T00620040  RH  086%=      5-min Rain = 0
KMC4 150956Z 15004KT 06/04 A3028 RMK A01 T00620041  RH  086%=      5-min Rain = 0
KMC4 150957Z 16004KT 06/04 A3028 RMK A01 T00620040  RH  086%=      5-min Rain = 0
KMC4 150958Z 16004KT 06/04 A3028 RMK A01 T00620041  RH  086%=      5-min Rain = 0
KMC4 150959Z 15004KT 06/04 A3028 RMK A01 T00620040  RH  086%=      5-min Rain = 0
KMC4 151000Z 16004KT 06/04 A3028 RMK A01 T00620040  RH  086%=      5-min Rain = 0
KMC4 151001Z 16004KT 06/04 A3028 RMK A01 T00620040  RH  086%=      5-min Rain = 0
KMC4 151002Z 16004KT 06/04 A3028 RMK A01 T00620040  RH  086%=      5-min Rain = 0
KMC4 151003Z 16004KT 06/04 A3028 RMK A01 T00620040  RH  086%=      5-min Rain = 0
KMC4 151004Z 16004KT 06/04 A3028 RMK A01 T00620040  RH  086%=      5-min Rain = 0
KMC4 151005Z 16003KT 06/04 A3028 RMK A01 T00620039  RH  086%=      5-min Rain = 0
KMC4 151006Z 15002KT 06/04 A3028 RMK A01 T00620040  RH  086%=      5-min Rain = 0
KMC4 151007Z 16002KT 06/04 A3028 RMK A01 T00620040  RH  086%=      5-min Rain = 0
KMC4 151008Z 15003KT 06/04 A3028 RMK A01 T00620040  RH  086%=      5-min Rain = 0
KMC4 151009Z 16004KT 06/04 A3028 RMK A01 T00610040  RH  086%=      5-min Rain = 0
KMC4 151010Z 16004KT 06/04 A3028 RMK A01 T00620040  RH  086%=      5-min Rain = 0
KMC4 151011Z 17003KT 06/04 A3028 RMK A01 T00620040  RH  086%=      5-min Rain = 0
KMC4 151012Z 17004KT 06/04 A3028 RMK A01 T00620040  RH  086%=      5-min Rain = 0
KMC4 151013Z 16003KT 06/04 A3028 RMK A01 T00620040  RH  086%=      5-min Rain = 0
KMC4 151014Z 15004KT 06/04 A3028 RMK A01 T00610040  RH  086%=      5-min Rain = 0
KMC4 151015Z 15003KT 06/04 A3027 RMK A01 T00620040  RH  086%=      5-min Rain = 0
KMC4 151016Z 15003KT 06/04 A3027 RMK A01 T00620040  RH  086%=      5-min Rain = 0
KMC4 151017Z 15003KT 06/04 A3027 RMK A01 T00610039  RH  086%=      5-min Rain = 0
KMC4 151018Z 16003KT 06/04 A3027 RMK A01 T00610039  RH  086%=      5-min Rain = 0
KMC4 151019Z 16004KT 06/04 A3027 RMK A01 T00610039  RH  086%=      5-min Rain = 0
KMC4 151020Z 14002KT 06/04 A3027 RMK A01 T00610039  RH  086%=      5-min Rain = 0
KMC4 151021Z 14003KT 06/04 A3027 RMK A01 T00610040  RH  086%=      5-min Rain = 0
KMC4 151022Z 14003KT 06/04 A3027 RMK A01 T00610039  RH  086%=      5-min Rain = 0
KMC4 151023Z 15003KT 06/04 A3027 RMK A01 T00610039  RH  086%=      5-min Rain = 0
KMC4 151024Z 15003KT 06/04 A3027 RMK A01 T00610039  RH  086%=      5-min Rain = 0
KMC4 151025Z 14003KT 06/04 A3027 RMK A01 T00610040  RH  086%=      5-min Rain = 0
KMC4 151026Z 13003KT 06/04 A3026 RMK A01 T00610040  RH  086%=      5-min Rain = 0
KMC4 151027Z 13003KT 06/04 A3026 RMK A01 T00610039  RH  086%=      5-min Rain = 0
KMC4 151028Z 13003KT 06/04 A3026 RMK A01 T00610039  RH  086%=      5-min Rain = 0
KMC4 151029Z 13003KT 06/04 A3026 RMK A01 T00610039  RH  086%=      5-min Rain = 0
KMC4 151030Z 13003KT 06/04 A3026 RMK A01 T00610040  RH  086%=      5-min Rain = 0
KMC4 151031Z 15003KT 06/04 A3026 RMK A01 T00610039  RH  086%=      5-min Rain = 0
KMC4 151032Z 15003KT 06/04 A3027 RMK A01 T00610040  RH  086%=      5-min Rain = 0
KMC4 151033Z 15003KT 06/04 A3027 RMK A01 T00610040  RH  086%=      5-min Rain = 0
KMC4 151034Z 16002KT 06/04 A3027 RMK A01 T00610040  RH  086%=      5-min Rain = 0
KMC4 151035Z 16003KT 06/04 A3027 RMK A01 T00610040  RH  086%=      5-min Rain = 0
KMC4 151036Z 16002KT 06/04 A3027 RMK A01 T00610040  RH  086%=      5-min Rain = 0
KMC4 151037Z 14002KT 06/04 A3026 RMK A01 T00610040  RH  086%=      5-min Rain = 0
KMC4 151038Z 13002KT 06/04 A3026 RMK A01 T00610040  RH  086%=      5-min Rain = 0
KMC4 151039Z 13003KT 06/04 A3026 RMK A01 T00610040  RH  086%=      5-min Rain = 0
KMC4 151040Z 13003KT 06/04 A3026 RMK A01 T00610040  RH  086%=      5-min Rain = 0
KMC4 151041Z 15003KT 06/04 A3026 RMK A01 T00610039  RH  086%=      5-min Rain = 0
KMC4 151042Z 15003KT 06/04 A3026 RMK A01 T00610039  RH  086%=      5-min Rain = 0
KMC4 151043Z 16004KT 06/04 A3027 RMK A01 T00610039  RH  086%=      5-min Rain = 0
KMC4 151044Z 16004KT 06/04 A3027 RMK A01 T00610039  RH  086%=      5-min Rain = 0
KMC4 151045Z 17004KT 06/04 A3027 RMK A01 T00610039  RH  086%=      5-min Rain = 0
KMC4 151046Z 18004KT 06/04 A3027 RMK A01 T00610039  RH  086%=      5-min Rain = 0
KMC4 151047Z 18004KT 06/04 A3027 RMK A01 T00610040  RH  086%=      5-min Rain = 0
KMC4 151048Z 17003KT 06/04 A3027 RMK A01 T00610040  RH  086%=      5-min Rain = 0
KMC4 151049Z 17004KT 06/04 A3027 RMK A01 T00610040  RH  086%=      5-min Rain = 0
KMC4 151050Z 17003KT 06/04 A3027 RMK A01 T00610039  RH  086%=      5-min Rain = 0
KMC4 151051Z 16003KT 06/04 A3027 RMK A01 T00610039  RH  086%=      5-min Rain = 0
KMC4 151052Z 17003KT 06/04 A3027 RMK A01 T00610039  RH  086%=      5-min Rain = 0
KMC4 151053Z 16003KT 06/04 A3027 RMK A01 T00610039  RH  086%=      5-min Rain = 0
KMC4 151054Z 17002KT 06/04 A3027 RMK A01 T00610039  RH  086%=      5-min Rain = 0
KMC4 151055Z 15002KT 06/04 A3026 RMK A01 T00610039  RH  086%=      5-min Rain = 0
KMC4 151056Z 14003KT 06/04 A3026 RMK A01 T00610039  RH  086%=      5-min Rain = 0
KMC4 151057Z 15002KT 06/04 A3026 RMK A01 T00610039  RH  086%=      5-min Rain = 0
KMC4 151058Z 15002KT 06/04 A3026 RMK A01 T00610039  RH  086%=      5-min Rain = 0
KMC4 151059Z 15003KT 06/04 A3026 RMK A01 T00610039  RH  086%=      5-min Rain = 0
KMC4 151100Z 15003KT 06/04 A3026 RMK A01 T00610040  RH  086%=      5-min Rain = 0
KMC4 151101Z 14002KT 06/04 A3026 RMK A01 T00610040  RH  086%=      5-min Rain = 0
KMC4 151102Z 16002KT 06/04 A3026 RMK A01 T00610040  RH  086%=      5-min Rain = 0
KMC4 151103Z 17003KT 06/04 A3026 RMK A01 T00600040  RH  087%=      5-min Rain = 0
KMC4 151104Z 16004KT 06/04 A3026 RMK A01 T00610040  RH  087%=      5-min Rain = 0
KMC4 151105Z 16004KT 06/04 A3026 RMK A01 T00610040  RH  086%=      5-min Rain = 0
KMC4 151106Z 17003KT 06/04 A3026 RMK A01 T00610039  RH  086%=      5-min Rain = 0
KMC4 151107Z 17003KT 06/04 A3026 RMK A01 T00610040  RH  087%=      5-min Rain = 0
KMC4 151108Z 18002KT 06/04 A3026 RMK A01 T00610040  RH  087%=      5-min Rain = 0
KMC4 151109Z 17002KT 06/04 A3026 RMK A01 T00610040  RH  087%=      5-min Rain = 0
KMC4 151110Z 17002KT 06/04 A3026 RMK A01 T00600040  RH  087%=      5-min Rain = 0
KMC4 151111Z 16001KT 06/04 A3026 RMK A01 T00600040  RH  087%=      5-min Rain = 0
KMC4 151112Z 15002KT 06/04 A3026 RMK A01 T00600039  RH  087%=      5-min Rain = 0
KMC4 151113Z 15003KT 06/04 A3026 RMK A01 T00600039  RH  087%=      5-min Rain = 0
KMC4 151114Z 17003KT 06/04 A3026 RMK A01 T00600040  RH  087%=      5-min Rain = 0
KMC4 151115Z 16003KT 06/04 A3026 RMK A01 T00600039  RH  086%=      5-min Rain = 0
KMC4 151116Z 15002KT 06/04 A3026 RMK A01 T00600039  RH  086%=      5-min Rain = 0
KMC4 151117Z 15002KT 06/04 A3026 RMK A01 T00600040  RH  087%=      5-min Rain = 0
KMC4 151118Z 17002KT 06/04 A3026 RMK A01 T00600039  RH  087%=      5-min Rain = 0
KMC4 151119Z 17002KT 06/04 A3026 RMK A01 T00600040  RH  087%=      5-min Rain = 0
KMC4 151120Z 17002KT 06/04 A3026 RMK A01 T00600040  RH  087%=      5-min Rain = 0
KMC4 151121Z 16003KT 06/04 A3026 RMK A01 T00600040  RH  087%=      5-min Rain = 0
KMC4 151122Z 17003KT 06/04 A3026 RMK A01 T00600039  RH  087%=      5-min Rain = 0
KMC4 151123Z 18003KT 06/04 A3026 RMK A01 T00600040  RH  087%=      5-min Rain = 0
KMC4 151124Z 18002KT 06/04 A3026 RMK A01 T00600040  RH  087%=      5-min Rain = 0
KMC4 151125Z 17002KT 06/04 A3026 RMK A01 T00600040  RH  087%=      5-min Rain = 0
KMC4 151126Z 16002KT 06/04 A3026 RMK A01 T00600040  RH  087%=      5-min Rain = 0
KMC4 151127Z 17002KT 06/04 A3026 RMK A01 T00600040  RH  087%=      5-min Rain = 0
KMC4 151128Z 18002KT 06/04 A3026 RMK A01 T00600040  RH  087%=      5-min Rain = 0
KMC4 151129Z 17002KT 06/04 A3026 RMK A01 T00600040  RH  087%=      5-min Rain = 0
KMC4 151130Z 16002KT 06/04 A3026 RMK A01 T00600040  RH  087%=      5-min Rain = 0
KMC4 151131Z 16003KT 06/04 A3026 RMK A01 T00600040  RH  087%=      5-min Rain = 0
KMC4 151132Z 15003KT 06/04 A3026 RMK A01 T00600040  RH  087%=      5-min Rain = 0
KMC4 151133Z 15003KT 06/04 A3026 RMK A01 T00600040  RH  087%=      5-min Rain = 0
KMC4 151134Z 15003KT 06/04 A3026 RMK A01 T00600040  RH  087%=      5-min Rain = 0
KMC4 151135Z 16002KT 06/04 A3026 RMK A01 T00600040  RH  087%=      5-min Rain = 0
KMC4 151136Z 16003KT 06/04 A3026 RMK A01 T00600040  RH  087%=      5-min Rain = 0
KMC4 151137Z 15003KT 06/04 A3026 RMK A01 T00600040  RH  087%=      5-min Rain = 0
KMC4 151138Z 14003KT 06/04 A3026 RMK A01 T00600040  RH  087%=      5-min Rain = 0
KMC4 151139Z 14003KT 06/04 A3026 RMK A01 T00600040  RH  087%=      5-min Rain = 0
KMC4 151140Z 15003KT 06/04 A3026 RMK A01 T00600040  RH  087%=      5-min Rain = 0
KMC4 151141Z 16003KT 06/04 A3026 RMK A01 T00600040  RH  087%=      5-min Rain = 0
KMC4 151142Z 16003KT 06/04 A3026 RMK A01 T00600040  RH  087%=      5-min Rain = 0
KMC4 151143Z 16003KT 06/04 A3026 RMK A01 T00600040  RH  087%=      5-min Rain = 0
KMC4 151144Z 16004KT 06/04 A3026 RMK A01 T00600040  RH  087%=      5-min Rain = 0
KMC4 151145Z 16004KT 06/04 A3026 RMK A01 T00600040  RH  087%=      5-min Rain = 0
KMC4 151146Z 16004KT 06/04 A3026 RMK A01 T00600040  RH  087%=      5-min Rain = 0
KMC4 151147Z 16003KT 06/04 A3026 RMK A01 T00600040  RH  087%=      5-min Rain = 0
KMC4 151148Z 16003KT 06/04 A3026 RMK A01 T00600040  RH  087%=      5-min Rain = 0
KMC4 151149Z 15003KT 06/04 A3026 RMK A01 T00600040  RH  087%=      5-min Rain = 0
KMC4 151150Z 15003KT 06/04 A3026 RMK A01 T00600040  RH  087%=      5-min Rain = 0
KMC4 151151Z 16003KT 06/04 A3026 RMK A01 T00600041  RH  087%=      5-min Rain = 0
KMC4 151152Z 16006KT 06/04 A3026 RMK A01 T00600041  RH  087%=      5-min Rain = 0
KMC4 151153Z 16005KT 06/04 A3026 RMK A01 T00600040  RH  087%=      5-min Rain = 0
KMC4 151154Z 16004KT 06/04 A3027 RMK A01 T00600040  RH  087%=      5-min Rain = 0
KMC4 151155Z 17004KT 06/04 A3027 RMK A01 T00600040  RH  087%=      5-min Rain = 0
KMC4 151156Z 17005KT 06/04 A3027 RMK A01 T00600040  RH  087%=      5-min Rain = 0
KMC4 151157Z 17006KT 06/04 A3027 RMK A01 T00600040  RH  087%=      5-min Rain = 0
KMC4 151158Z 18004KT 06/04 A3027 RMK A01 T00600040  RH  087%=      5-min Rain = 0
KMC4 151159Z 18005KT 06/04 A3028 RMK A01 T00600040  RH  087%=      5-min Rain = 0
KMC4 151200Z 18005KT 06/04 A3028 RMK A01 T00600040  RH  087%=      5-min Rain = 0
KMC4 151201Z 18004KT 06/04 A3028 RMK A01 T00600040  RH  087%=      5-min Rain = 0
KMC4 151202Z 18005KT 06/04 A3028 RMK A01 T00600040  RH  087%=      5-min Rain = 0
KMC4 151203Z 19004KT 06/04 A3028 RMK A01 T00600040  RH  087%=      5-min Rain = 0
KMC4 151204Z 18004KT 06/04 A3028 RMK A01 T00600040  RH  087%=      5-min Rain = 0
KMC4 151205Z 18005KT 06/04 A3028 RMK A01 T00600041  RH  087%=      5-min Rain = 0
KMC4 151206Z 18004KT 06/04 A3028 RMK A01 T00600040  RH  087%=      5-min Rain = 0
KMC4 151207Z 18004KT 06/04 A3028 RMK A01 T00600041  RH  088%=      5-min Rain = 0
KMC4 151208Z 18005KT 06/04 A3028 RMK A01 T00600041  RH  088%=      5-min Rain = 0
KMC4 151209Z 18004KT 06/04 A3028 RMK A01 T00600040  RH  087%=      5-min Rain = 0
KMC4 151210Z 18005KT 06/04 A3028 RMK A01 T00600041  RH  087%=      5-min Rain = 0
KMC4 151211Z 17005KT 06/04 A3028 RMK A01 T00600040  RH  087%=      5-min Rain = 0
KMC4 151212Z 17005KT 06/04 A3028 RMK A01 T00600040  RH  087%=      5-min Rain = 0
KMC4 151213Z 17006KT 06/04 A3028 RMK A01 T00600040  RH  087%=      5-min Rain = 0
KMC4 151214Z 17005KT 06/04 A3028 RMK A01 T00600040  RH  087%=      5-min Rain = 0
KMC4 151215Z 17006KT 06/04 A3028 RMK A01 T00600040  RH  087%=      5-min Rain = 0
KMC4 151216Z 17006KT 06/04 A3028 RMK A01 T00600040  RH  087%=      5-min Rain = 0
KMC4 151217Z 16005KT 06/04 A3028 RMK A01 T00600040  RH  087%=      5-min Rain = 0
KMC4 151218Z 16005KT 06/04 A3028 RMK A01 T00600040  RH  087%=      5-min Rain = 0
KMC4 151219Z 16005KT 06/04 A3028 RMK A01 T00600040  RH  087%=      5-min Rain = 0
KMC4 151220Z 16006KT 06/04 A3028 RMK A01 T00600040  RH  087%=      5-min Rain = 0
KMC4 151221Z 16005KT 06/04 A3028 RMK A01 T00600040  RH  087%=      5-min Rain = 0
KMC4 151222Z 17005KT 06/04 A3028 RMK A01 T00600040  RH  087%=      5-min Rain = 0
KMC4 151223Z 16007KT 06/04 A3028 RMK A01 T00600040  RH  087%=      5-min Rain = 0
KMC4 151224Z 16007KT 06/04 A3028 RMK A01 T00600040  RH  087%=      5-min Rain = 0
KMC4 151225Z 17006KT 06/04 A3028 RMK A01 T00600040  RH  087%=      5-min Rain = 0
KMC4 151226Z 17006KT 06/04 A3028 RMK A01 T00600040  RH  087%=      5-min Rain = 0
KMC4 151227Z 16005KT 06/04 A3028 RMK A01 T00600040  RH  087%=      5-min Rain = 0
KMC4 151228Z 16006KT 06/04 A3028 RMK A01 T00600040  RH  087%=      5-min Rain = 0
KMC4 151229Z 15006KT 06/04 A3027 RMK A01 T00600040  RH  087%=      5-min Rain = 0
KMC4 151230Z 16008KT 06/04 A3027 RMK A01 T00600040  RH  087%=      5-min Rain = 0
KMC4 151231Z 16008KT 06/04 A3027 RMK A01 T00600039  RH  087%=      5-min Rain = 0
KMC4 151232Z 16007KT 06/04 A3027 RMK A01 T00600039  RH  087%=      5-min Rain = 0
KMC4 151233Z 15008KT 06/04 A3027 RMK A01 T00600039  RH  087%=      5-min Rain = 0
KMC4 151234Z 16007KT 06/04 A3027 RMK A01 T00600039  RH  086%=      5-min Rain = 0
KMC4 151235Z 16007KT 06/04 A3027 RMK A01 T00600039  RH  086%=      5-min Rain = 0
KMC4 151236Z 15008KT 06/04 A3027 RMK A01 T00600039  RH  086%=      5-min Rain = 0
KMC4 151237Z 16008KT 06/04 A3027 RMK A01 T00600039  RH  086%=      5-min Rain = 0
KMC4 151238Z 16006KT 06/04 A3027 RMK A01 T00600039  RH  086%=      5-min Rain = 0
KMC4 151239Z 15006KT 06/04 A3027 RMK A01 T00600039  RH  086%=      5-min Rain = 0
KMC4 151240Z 15006KT 06/04 A3027 RMK A01 T00600039  RH  086%=      5-min Rain = 0
KMC4 151241Z 15006KT 06/04 A3027 RMK A01 T00600039  RH  086%=      5-min Rain = 0
KMC4 151242Z 15006KT 06/04 A3027 RMK A01 T00600039  RH  086%=      5-min Rain = 0
KMC4 151243Z 15008KT 06/04 A3027 RMK A01 T00600039  RH  086%=      5-min Rain = 0
KMC4 151244Z 16008KT 06/04 A3027 RMK A01 T00600038  RH  086%=      5-min Rain = 0
KMC4 151245Z 15007KT 06/04 A3027 RMK A01 T00600038  RH  086%=      5-min Rain = 0
KMC4 151246Z 16008KT 06/04 A3027 RMK A01 T00600038  RH  086%=      5-min Rain = 0
KMC4 151247Z 16007KT 06/04 A3027 RMK A01 T00600038  RH  086%=      5-min Rain = 0
KMC4 151248Z 16006KT 06/04 A3027 RMK A01 T00600038  RH  086%=      5-min Rain = 0
KMC4 151249Z 16006KT 06/04 A3027 RMK A01 T00600038  RH  086%=      5-min Rain = 0
KMC4 151250Z 16006KT 06/04 A3027 RMK A01 T00600039  RH  086%=      5-min Rain = 0
KMC4 151251Z 15006KT 06/04 A3027 RMK A01 T00600038  RH  086%=      5-min Rain = 0
KMC4 151252Z 15006KT 06/04 A3027 RMK A01 T00600038  RH  086%=      5-min Rain = 0
KMC4 151253Z 15005KT 06/04 A3026 RMK A01 T00600039  RH  086%=      5-min Rain = 0
KMC4 151254Z 15005KT 06/04 A3026 RMK A01 T00600039  RH  086%=      5-min Rain = 0
KMC4 151255Z 14006KT 06/04 A3026 RMK A01 T00600039  RH  086%=      5-min Rain = 0
KMC4 151256Z 15005KT 06/04 A3026 RMK A01 T00600039  RH  086%=      5-min Rain = 0
KMC4 151257Z 15005KT 06/04 A3026 RMK A01 T00600039  RH  086%=      5-min Rain = 0
KMC4 151258Z 16006KT 06/04 A3027 RMK A01 T00600039  RH  086%=      5-min Rain = 0
KMC4 151259Z 16005KT 06/04 A3027 RMK A01 T00600039  RH  086%=      5-min Rain = 0
KMC4 151300Z 17004KT 06/04 A3027 RMK A01 T00600038  RH  086%=      5-min Rain = 0
KMC4 151301Z 16004KT 06/04 A3027 RMK A01 T00600038  RH  086%=      5-min Rain = 0
KMC4 151302Z 17004KT 06/04 A3027 RMK A01 T00600039  RH  086%=      5-min Rain = 0
KMC4 151303Z 17004KT 06/04 A3027 RMK A01 T00600039  RH  086%=      5-min Rain = 0
KMC4 151304Z 16004KT 06/04 A3027 RMK A01 T00600038  RH  086%=      5-min Rain = 0
KMC4 151305Z 16004KT 06/04 A3027 RMK A01 T00600039  RH  086%=      5-min Rain = 0
KMC4 151306Z 16004KT 06/04 A3027 RMK A01 T00600039  RH  086%=      5-min Rain = 0
KMC4 151307Z 16005KT 06/04 A3027 RMK A01 T00600038  RH  086%=      5-min Rain = 0
KMC4 151308Z 16005KT 06/04 A3027 RMK A01 T00600039  RH  086%=      5-min Rain = 0
KMC4 151309Z 15004KT 06/04 A3027 RMK A01 T00600038  RH  086%=      5-min Rain = 0
KMC4 151310Z 15005KT 06/04 A3027 RMK A01 T00600039  RH  086%=      5-min Rain = 0
KMC4 151311Z 15004KT 06/04 A3027 RMK A01 T00600039  RH  086%=      5-min Rain = 0
KMC4 151312Z 15005KT 06/04 A3027 RMK A01 T00600039  RH  086%=      5-min Rain = 0
KMC4 151313Z 15005KT 06/04 A3027 RMK A01 T00600039  RH  086%=      5-min Rain = 0
KMC4 151314Z 16005KT 06/04 A3027 RMK A01 T00600039  RH  086%=      5-min Rain = 0
KMC4 151315Z 17006KT 06/04 A3027 RMK A01 T00600039  RH  086%=      5-min Rain = 0
KMC4 151316Z 17005KT 06/04 A3027 RMK A01 T00600038  RH  086%=      5-min Rain = 0
KMC4 151317Z 17005KT 06/04 A3028 RMK A01 T00600038  RH  086%=      5-min Rain = 0
KMC4 151318Z 17005KT 06/04 A3028 RMK A01 T00600038  RH  086%=      5-min Rain = 0
KMC4 151319Z 17004KT 06/04 A3028 RMK A01 T00600038  RH  086%=      5-min Rain = 0
KMC4 151320Z 17004KT 06/04 A3028 RMK A01 T00600039  RH  086%=      5-min Rain = 0
KMC4 151321Z 17004KT 06/04 A3027 RMK A01 T00600039  RH  086%=      5-min Rain = 0
KMC4 151322Z 17004KT 06/04 A3027 RMK A01 T00590038  RH  086%=      5-min Rain = 0
KMC4 151323Z 16004KT 06/04 A3027 RMK A01 T00590038  RH  086%=      5-min Rain = 0
KMC4 151324Z 16004KT 06/04 A3027 RMK A01 T00590038  RH  086%=      5-min Rain = 0
KMC4 151325Z 16004KT 06/04 A3027 RMK A01 T00590038  RH  086%=      5-min Rain = 0
KMC4 151326Z 15004KT 06/04 A3027 RMK A01 T00590038  RH  087%=      5-min Rain = 0
KMC4 151327Z 15004KT 06/04 A3027 RMK A01 T00590039  RH  087%=      5-min Rain = 0
KMC4 151328Z 15003KT 06/04 A3027 RMK A01 T00590039  RH  087%=      5-min Rain = 0
KMC4 151329Z 14003KT 06/04 A3026 RMK A01 T00590038  RH  087%=      5-min Rain = 0
KMC4 151330Z 14004KT 06/04 A3026 RMK A01 T00590039  RH  087%=      5-min Rain = 0
KMC4 151331Z 14004KT 06/04 A3027 RMK A01 T00580038  RH  087%=      5-min Rain = 0
KMC4 151332Z 14004KT 06/04 A3027 RMK A01 T00580039  RH  087%=      5-min Rain = 0
KMC4 151333Z 14005KT 06/04 A3027 RMK A01 T00580039  RH  087%=      5-min Rain = 0
KMC4 151334Z 14004KT 06/04 A3026 RMK A01 T00580038  RH  087%=      5-min Rain = 0
KMC4 151335Z 14004KT 06/04 A3026 RMK A01 T00580039  RH  087%=      5-min Rain = 0
KMC4 151336Z 14004KT 06/04 A3026 RMK A01 T00580039  RH  087%=      5-min Rain = 0
KMC4 151337Z 14004KT 06/04 A3026 RMK A01 T00570038  RH  088%=      5-min Rain = 0
KMC4 151338Z 13004KT 06/04 A3026 RMK A01 T00570038  RH  088%=      5-min Rain = 0
KMC4 151339Z 13004KT 06/04 A3026 RMK A01 T00570038  RH  088%=      5-min Rain = 0
KMC4 151340Z 13004KT 06/04 A3026 RMK A01 T00570039  RH  088%=      5-min Rain = 0
KMC4 151341Z 14004KT 06/04 A3026 RMK A01 T00570039  RH  088%=      5-min Rain = 0
KMC4 151342Z 14004KT 06/04 A3026 RMK A01 T00570039  RH  088%=      5-min Rain = 0
KMC4 151343Z 14004KT 06/04 A3026 RMK A01 T00570039  RH  088%=      5-min Rain = 0
KMC4 151344Z 14005KT 06/04 A3026 RMK A01 T00570039  RH  088%=      5-min Rain = 0
KMC4 151345Z 14004KT 06/04 A3026 RMK A01 T00560039  RH  088%=      5-min Rain = 0
KMC4 151346Z 15005KT 06/04 A3026 RMK A01 T00570039  RH  088%=      5-min Rain = 0
KMC4 151347Z 15004KT 06/04 A3026 RMK A01 T00560039  RH  088%=      5-min Rain = 0
KMC4 151348Z 16004KT 06/04 A3026 RMK A01 T00560039  RH  089%=      5-min Rain = 0
KMC4 151349Z 16004KT 06/04 A3027 RMK A01 T00570039  RH  089%=      5-min Rain = 0
KMC4 151350Z 15004KT 06/04 A3027 RMK A01 T00570039  RH  089%=      5-min Rain = 0
KMC4 151351Z 16004KT 06/04 A3027 RMK A01 T00570039  RH  089%=      5-min Rain = 0
KMC4 151352Z 16003KT 06/04 A3027 RMK A01 T00570039  RH  089%=      5-min Rain = 0
KMC4 151353Z 16003KT 06/04 A3027 RMK A01 T00570040  RH  089%=      5-min Rain = 0
KMC4 151354Z 17003KT 06/04 A3027 RMK A01 T00560039  RH  089%=      5-min Rain = 0
KMC4 151355Z 17003KT 06/04 A3027 RMK A01 T00570039  RH  089%=      5-min Rain = 0
KMC4 151356Z 17003KT 06/04 A3027 RMK A01 T00560039  RH  089%=      5-min Rain = 0
KMC4 151357Z 16002KT 06/04 A3027 RMK A01 T00570039  RH  089%=      5-min Rain = 0
KMC4 151358Z 16003KT 06/04 A3027 RMK A01 T00560039  RH  089%=      5-min Rain = 0
KMC4 151359Z 15002KT 06/04 A3027 RMK A01 T00560039  RH  089%=      5-min Rain = 0
KMC4 151400Z 16002KT 06/04 A3027 RMK A01 T00570040  RH  089%=      5-min Rain = 0
KMC4 151401Z 15003KT 06/04 A3027 RMK A01 T00560039  RH  089%=      5-min Rain = 0
KMC4 151402Z 15002KT 06/04 A3027 RMK A01 T00570040  RH  089%=      5-min Rain = 0
KMC4 151403Z 15002KT 06/04 A3027 RMK A01 T00570040  RH  089%=      5-min Rain = 0
KMC4 151404Z 15003KT 06/04 A3027 RMK A01 T00560040  RH  089%=      5-min Rain = 0
KMC4 151405Z 15002KT 06/04 A3027 RMK A01 T00560040  RH  089%=      5-min Rain = 0
KMC4 151406Z 16003KT 06/04 A3027 RMK A01 T00570040  RH  089%=      5-min Rain = 0
KMC4 151407Z 16003KT 06/04 A3027 RMK A01 T00570040  RH  089%=      5-min Rain = 0
KMC4 151408Z 16003KT 06/04 A3027 RMK A01 T00570041  RH  089%=      5-min Rain = 0
KMC4 151409Z 15003KT 06/04 A3027 RMK A01 T00570041  RH  089%=      5-min Rain = 0
KMC4 151410Z 15003KT 06/04 A3027 RMK A01 T00570041  RH  089%=      5-min Rain = 0
KMC4 151411Z 14003KT 06/04 A3027 RMK A01 T00570041  RH  089%=      5-min Rain = 0
KMC4 151412Z 14003KT 06/04 A3027 RMK A01 T00570041  RH  089%=      5-min Rain = 0
KMC4 151413Z 14003KT 06/04 A3027 RMK A01 T00570041  RH  089%=      5-min Rain = 0
KMC4 151414Z 14004KT 06/04 A3027 RMK A01 T00570041  RH  090%=      5-min Rain = 0
KMC4 151415Z 13003KT 06/04 A3027 RMK A01 T00570041  RH  089%=      5-min Rain = 0
KMC4 151416Z 14004KT 06/04 A3027 RMK A01 T00570041  RH  089%=      5-min Rain = 0
KMC4 151417Z 14004KT 06/04 A3027 RMK A01 T00570041  RH  089%=      5-min Rain = 0
KMC4 151418Z 14005KT 06/04 A3027 RMK A01 T00580042  RH  089%=      5-min Rain = 0
KMC4 151419Z 14005KT 06/04 A3027 RMK A01 T00580042  RH  089%=      5-min Rain = 0
KMC4 151420Z 14005KT 06/04 A3027 RMK A01 T00580042  RH  089%=      5-min Rain = 0
KMC4 151421Z 14005KT 06/04 A3027 RMK A01 T00580042  RH  089%=      5-min Rain = 0
KMC4 151422Z 14005KT 06/04 A3027 RMK A01 T00590042  RH  089%=      5-min Rain = 0
KMC4 151423Z 14006KT 06/04 A3027 RMK A01 T00590042  RH  089%=      5-min Rain = 0
KMC4 151424Z 14005KT 06/04 A3027 RMK A01 T00590042  RH  089%=      5-min Rain = 0
KMC4 151425Z 14006KT 06/04 A3027 RMK A01 T00590042  RH  089%=      5-min Rain = 0
KMC4 151426Z 13006KT 06/04 A3027 RMK A01 T00590042  RH  089%=      5-min Rain = 0
KMC4 151427Z 13006KT 06/04 A3027 RMK A01 T00590042  RH  089%=      5-min Rain = 0
KMC4 151428Z 13006KT 06/04 A3027 RMK A01 T00590042  RH  089%=      5-min Rain = 0
KMC4 151429Z 13005KT 06/04 A3027 RMK A01 T00590042  RH  089%=      5-min Rain = 0
KMC4 151430Z 13006KT 06/04 A3027 RMK A01 T00590042  RH  089%=      5-min Rain = 0
KMC4 151431Z 13006KT 06/04 A3027 RMK A01 T00590042  RH  089%=      5-min Rain = 0
KMC4 151432Z 13006KT 06/04 A3027 RMK A01 T00590042  RH  089%=      5-min Rain = 0
KMC4 151433Z 12005KT 06/04 A3027 RMK A01 T00590042  RH  089%=      5-min Rain = 0
KMC4 151434Z 13005KT 06/04 A3027 RMK A01 T00590042  RH  089%=      5-min Rain = 0
KMC4 151435Z 13005KT 06/04 A3027 RMK A01 T00590042  RH  089%=      5-min Rain = 0
KMC4 151436Z 14006KT 06/04 A3027 RMK A01 T00590042  RH  089%=      5-min Rain = 0
KMC4 151437Z 14007KT 06/04 A3027 RMK A01 T00590042  RH  089%=      5-min Rain = 0
KMC4 151438Z 14007KT 06/04 A3027 RMK A01 T00590042  RH  089%=      5-min Rain = 0
KMC4 151439Z 14006KT 06/04 A3027 RMK A01 T00590042  RH  089%=      5-min Rain = 0
KMC4 151440Z 13005KT 06/04 A3027 RMK A01 T00590043  RH  089%=      5-min Rain = 0
KMC4 151441Z 13005KT 06/04 A3027 RMK A01 T00590043  RH  089%=      5-min Rain = 0
KMC4 151442Z 14006KT 06/04 A3027 RMK A01 T00590043  RH  089%=      5-min Rain = 0
KMC4 151443Z 14006KT 06/04 A3028 RMK A01 T00590043  RH  089%=      5-min Rain = 0
KMC4 151444Z 14006KT 06/04 A3027 RMK A01 T00590043  RH  089%=      5-min Rain = 0
KMC4 151445Z 13006KT 06/04 A3027 RMK A01 T00590043  RH  089%=      5-min Rain = 0
KMC4 151446Z 13006KT 06/04 A3027 RMK A01 T00590043  RH  089%=      5-min Rain = 0
KMC4 151447Z 14006KT 06/04 A3027 RMK A01 T00590043  RH  089%=      5-min Rain = 0
KMC4 151448Z 14006KT 06/04 A3027 RMK A01 T00590043  RH  089%=      5-min Rain = 0
KMC4 151449Z 14007KT 06/04 A3027 RMK A01 T00590043  RH  089%=      5-min Rain = 0
KMC4 151450Z 13006KT 06/04 A3027 RMK A01 T00590043  RH  089%=      5-min Rain = 0
KMC4 151451Z 14005KT 06/04 A3027 RMK A01 T00590043  RH  089%=      5-min Rain = 0
KMC4 151452Z 14005KT 06/04 A3027 RMK A01 T00590043  RH  089%=      5-min Rain = 0
KMC4 151453Z 13004KT 06/04 A3027 RMK A01 T00590043  RH  089%=      5-min Rain = 0
KMC4 151454Z 14004KT 06/04 A3027 RMK A01 T00600043  RH  089%=      5-min Rain = 0
KMC4 151455Z 12004KT 06/04 A3027 RMK A01 T00600043  RH  089%=      5-min Rain = 0
KMC4 151456Z 13004KT 06/04 A3027 RMK A01 T00600043  RH  089%=      5-min Rain = 0
KMC4 151457Z 14003KT 06/04 A3028 RMK A01 T00600043  RH  089%=      5-min Rain = 0
KMC4 151458Z 14004KT 06/04 A3028 RMK A01 T00600043  RH  089%=      5-min Rain = 0
KMC4 151459Z 13003KT 06/04 A3028 RMK A01 T00600043  RH  089%=      5-min Rain = 0
KMC4 151500Z 14003KT 06/04 A3028 RMK A01 T00600043  RH  089%=      5-min Rain = 0
KMC4 151501Z 14004KT 06/04 A3028 RMK A01 T00600043  RH  089%=      5-min Rain = 0
KMC4 151502Z 14003KT 06/04 A3028 RMK A01 T00600043  RH  089%=      5-min Rain = 0
KMC4 151503Z 14004KT 06/04 A3028 RMK A01 T00600043  RH  089%=      5-min Rain = 0
KMC4 151504Z 13003KT 06/04 A3028 RMK A01 T00600043  RH  089%=      5-min Rain = 0
KMC4 151505Z 16003KT 06/04 A3028 RMK A01 T00610044  RH  089%=      5-min Rain = 0
KMC4 151506Z 15004KT 06/04 A3028 RMK A01 T00610044  RH  089%=      5-min Rain = 0
KMC4 151507Z 14004KT 06/04 A3028 RMK A01 T00610044  RH  089%=      5-min Rain = 0
KMC4 151508Z 14004KT 06/04 A3028 RMK A01 T00610044  RH  089%=      5-min Rain = 0
KMC4 151509Z 14003KT 06/04 A3028 RMK A01 T00610044  RH  088%=      5-min Rain = 0
KMC4 151510Z 15003KT 06/04 A3028 RMK A01 T00610043  RH  088%=      5-min Rain = 0
KMC4 151511Z 14004KT 06/04 A3028 RMK A01 T00610044  RH  089%=      5-min Rain = 0
KMC4 151512Z 15003KT 06/04 A3028 RMK A01 T00610043  RH  088%=      5-min Rain = 0
KMC4 151513Z 14004KT 06/04 A3028 RMK A01 T00610043  RH  088%=      5-min Rain = 0
KMC4 151514Z 15003KT 06/04 A3028 RMK A01 T00610043  RH  088%=      5-min Rain = 0
KMC4 151515Z 16003KT 06/04 A3028 RMK A01 T00610043  RH  088%=      5-min Rain = 0
KMC4 151516Z 15005KT 06/04 A3028 RMK A01 T00610043  RH  088%=      5-min Rain = 0
KMC4 151517Z 16004KT 06/04 A3028 RMK A01 T00610043  RH  088%=      5-min Rain = 0
KMC4 151518Z 16004KT 06/04 A3028 RMK A01 T00610042  RH  088%=      5-min Rain = 0
KMC4 151519Z 15003KT 06/04 A3028 RMK A01 T00610042  RH  088%=      5-min Rain = 0
KMC4 151520Z 15002KT 06/04 A3028 RMK A01 T00610042  RH  088%=      5-min Rain = 0
KMC4 151521Z 15003KT 06/04 A3028 RMK A01 T00610043  RH  088%=      5-min Rain = 0
KMC4 151522Z 14003KT 06/04 A3028 RMK A01 T00610043  RH  088%=      5-min Rain = 0
KMC4 151523Z 15004KT 06/04 A3028 RMK A01 T00610043  RH  088%=      5-min Rain = 0
KMC4 151524Z 15004KT 06/04 A3028 RMK A01 T00610042  RH  088%=      5-min Rain = 0
KMC4 151525Z 15004KT 06/04 A3028 RMK A01 T00620042  RH  087%=      5-min Rain = 0
KMC4 151526Z 15004KT 06/04 A3028 RMK A01 T00620042  RH  088%=      5-min Rain = 0
KMC4 151527Z 14004KT 06/04 A3028 RMK A01 T00620043  RH  088%=      5-min Rain = 0
KMC4 151528Z 14005KT 06/04 A3028 RMK A01 T00610043  RH  088%=      5-min Rain = 0
KMC4 151529Z 15006KT 06/04 A3028 RMK A01 T00620043  RH  088%=      5-min Rain = 0
KMC4 151530Z 15005KT 06/04 A3028 RMK A01 T00620043  RH  088%=      5-min Rain = 0
KMC4 151531Z 14006KT 06/04 A3028 RMK A01 T00620044  RH  088%=      5-min Rain = 0
KMC4 151532Z 15006KT 06/04 A3028 RMK A01 T00620043  RH  088%=      5-min Rain = 0
KMC4 151533Z 15005KT 06/04 A3029 RMK A01 T00630043  RH  087%=      5-min Rain = 0
KMC4 151534Z 15005KT 06/04 A3029 RMK A01 T00620043  RH  087%=      5-min Rain = 0
KMC4 151535Z 15005KT 06/04 A3029 RMK A01 T00620043  RH  087%=      5-min Rain = 0
KMC4 151536Z 15005KT 06/04 A3029 RMK A01 T00620042  RH  087%=      5-min Rain = 0
KMC4 151537Z 15005KT 06/04 A3029 RMK A01 T00630043  RH  087%=      5-min Rain = 0
KMC4 151538Z 15004KT 06/04 A3029 RMK A01 T00630042  RH  087%=      5-min Rain = 0
KMC4 151539Z 14004KT 06/04 A3029 RMK A01 T00630042  RH  087%=      5-min Rain = 0
KMC4 151540Z 15004KT 06/04 A3029 RMK A01 T00620042  RH  087%=      5-min Rain = 0
KMC4 151541Z 14004KT 06/04 A3029 RMK A01 T00630044  RH  088%=      5-min Rain = 0
KMC4 151542Z 14004KT 06/04 A3029 RMK A01 T00630043  RH  087%=      5-min Rain = 0
KMC4 151543Z 14003KT 06/04 A3029 RMK A01 T00640043  RH  087%=      5-min Rain = 0
KMC4 151544Z 14003KT 06/04 A3029 RMK A01 T00640043  RH  087%=      5-min Rain = 0
KMC4 151545Z 13004KT 06/04 A303 RMK A01 T00640044  RH  087%=      5-min Rain = 0
KMC4 151546Z 13004KT 06/04 A303 RMK A01 T00640043  RH  087%=      5-min Rain = 0
KMC4 151547Z 13003KT 06/04 A303 RMK A01 T00640043  RH  087%=      5-min Rain = 0
KMC4 151548Z 14004KT 06/04 A303 RMK A01 T00640043  RH  087%=      5-min Rain = 0
KMC4 151549Z 14004KT 06/04 A303 RMK A01 T00630043  RH  087%=      5-min Rain = 0
KMC4 151550Z 14004KT 06/04 A303 RMK A01 T00630043  RH  087%=      5-min Rain = 0
KMC4 151551Z 14004KT 06/04 A303 RMK A01 T00640043  RH  087%=      5-min Rain = 0
KMC4 151552Z 13004KT 06/04 A303 RMK A01 T00630043  RH  087%=      5-min Rain = 0
KMC4 151553Z 12004KT 06/04 A303 RMK A01 T00630044  RH  087%=      5-min Rain = 0
KMC4 151554Z 12004KT 06/04 A303 RMK A01 T00640044  RH  087%=      5-min Rain = 0
KMC4 151555Z 13005KT 06/04 A303 RMK A01 T00630044  RH  087%=      5-min Rain = 0
KMC4 151556Z 14004KT 06/04 A303 RMK A01 T00640044  RH  087%=      5-min Rain = 0
KMC4 151557Z 13004KT 06/04 A303 RMK A01 T00640044  RH  087%=      5-min Rain = 0
KMC4 151558Z 13002KT 06/04 A303 RMK A01 T00630043  RH  087%=      5-min Rain = 0
KMC4 151559Z 13003KT 06/04 A303 RMK A01 T00640043  RH  087%=      5-min Rain = 0
KMC4 151600Z 13004KT 06/04 A303 RMK A01 T00630043  RH  087%=      5-min Rain = 0
KMC4 151601Z 12004KT 06/04 A303 RMK A01 T00630043  RH  087%=      5-min Rain = 0
KMC4 151602Z 12003KT 06/04 A303 RMK A01 T00640043  RH  087%=      5-min Rain = 0
KMC4 151603Z 12002KT 06/04 A303 RMK A01 T00630043  RH  087%=      5-min Rain = 0
KMC4 151604Z 13003KT 06/04 A3031 RMK A01 T00630043  RH  087%=      5-min Rain = 0
KMC4 151605Z 14004KT 06/04 A3031 RMK A01 T00630043  RH  087%=      5-min Rain = 0
KMC4 151606Z 12005KT 06/04 A3031 RMK A01 T00630044  RH  087%=      5-min Rain = 0
KMC4 151607Z 12005KT 06/04 A3031 RMK A01 T00630044  RH  088%=      5-min Rain = 0
KMC4 151608Z 11005KT 06/04 A3031 RMK A01 T00630044  RH  088%=      5-min Rain = 0
KMC4 151609Z 12006KT 06/04 A3031 RMK A01 T00630044  RH  087%=      5-min Rain = 0
KMC4 151610Z 12006KT 06/05 A3031 RMK A01 T00630045  RH  088%=      5-min Rain = 0
KMC4 151611Z 13006KT 06/05 A3031 RMK A01 T00640045  RH  088%=      5-min Rain = 0
KMC4 151612Z 14007KT 06/05 A3031 RMK A01 T00640045  RH  088%=      5-min Rain = 0
KMC4 151613Z 14007KT 06/05 A303 RMK A01 T00640045  RH  088%=      5-min Rain = 0
KMC4 151614Z 14008KT 06/05 A3031 RMK A01 T00640045  RH  087%=      5-min Rain = 0
KMC4 151615Z 14007KT 06/05 A3031 RMK A01 T00640045  RH  087%=      5-min Rain = 0
KMC4 151616Z 13007KT 06/04 A3031 RMK A01 T00640044  RH  087%=      5-min Rain = 0
KMC4 151617Z 13007KT 06/04 A3031 RMK A01 T00640044  RH  087%=      5-min Rain = 0
KMC4 151618Z 14006KT 06/04 A3031 RMK A01 T00640044  RH  087%=      5-min Rain = 0
KMC4 151619Z 15006KT 06/04 A3032 RMK A01 T00640044  RH  087%=      5-min Rain = 0
KMC4 151620Z 13006KT 06/04 A3032 RMK A01 T00640044  RH  087%=      5-min Rain = 0
KMC4 151621Z 13007KT 06/04 A3031 RMK A01 T00640044  RH  087%=      5-min Rain = 0
KMC4 151622Z 13009KT 07/05 A3031 RMK A01 T00650045  RH  087%=      5-min Rain = 0
KMC4 151623Z 13010KT 07/04 A3031 RMK A01 T00650044  RH  087%=      5-min Rain = 0
KMC4 151624Z 13009KT 07/04 A303 RMK A01 T00650044  RH  086%=      5-min Rain = 0
KMC4 151625Z 13008KT 07/04 A3031 RMK A01 T00650044  RH  086%=      5-min Rain = 0
KMC4 151626Z 13007KT 07/04 A3031 RMK A01 T00650044  RH  086%=      5-min Rain = 0
KMC4 151627Z 13007KT 07/04 A3031 RMK A01 T00650044  RH  086%=      5-min Rain = 0
KMC4 151628Z 13008KT 07/04 A3031 RMK A01 T00660044  RH  086%=      5-min Rain = 0
KMC4 151629Z 13008KT 07/04 A3031 RMK A01 T00660044  RH  086%=      5-min Rain = 0
KMC4 151630Z 13008KT 07/04 A3031 RMK A01 T00650044  RH  086%=      5-min Rain = 0
KMC4 151631Z 13008KT 07/04 A3031 RMK A01 T00650044  RH  086%=      5-min Rain = 0
KMC4 151632Z 13008KT 07/04 A3031 RMK A01 T00650043  RH  086%=      5-min Rain = 0
KMC4 151633Z 14008KT 07/04 A3031 RMK A01 T00650044  RH  086%=      5-min Rain = 0
KMC4 151634Z 13008KT 07/04 A3031 RMK A01 T00650044  RH  086%=      5-min Rain = 0
KMC4 151635Z 13008KT 07/04 A3031 RMK A01 T00650044  RH  086%=      5-min Rain = 0
KMC4 151636Z 13009KT 07/04 A3031 RMK A01 T00650044  RH  086%=      5-min Rain = 0
KMC4 151637Z 14007KT 07/04 A3031 RMK A01 T00650044  RH  086%=      5-min Rain = 0
KMC4 151638Z 13007KT 07/05 A3031 RMK A01 T00660045  RH  086%=      5-min Rain = 0
KMC4 151639Z 13008KT 07/04 A3031 RMK A01 T00660044  RH  086%=      5-min Rain = 0
KMC4 151640Z 13009KT 07/04 A3031 RMK A01 T00660044  RH  086%=      5-min Rain = 0
KMC4 151641Z 14008KT 07/04 A3031 RMK A01 T00660044  RH  086%=      5-min Rain = 0
KMC4 151642Z 14008KT 07/04 A3031 RMK A01 T00660044  RH  086%=      5-min Rain = 0
KMC4 151643Z 13009KT 07/05 A3031 RMK A01 T00660045  RH  087%=      5-min Rain = 0
KMC4 151644Z 14010KT 07/05 A3031 RMK A01 T00660045  RH  087%=      5-min Rain = 0
KMC4 151645Z 14009KT 07/05 A3031 RMK A01 T00660045  RH  087%=      5-min Rain = 0
KMC4 151646Z 14008KT 07/05 A3031 RMK A01 T00660045  RH  087%=      5-min Rain = 0
KMC4 151647Z 14008KT 07/05 A3031 RMK A01 T00660045  RH  087%=      5-min Rain = 0
KMC4 151648Z 14008KT 07/05 A3031 RMK A01 T00660045  RH  087%=      5-min Rain = 0
KMC4 151649Z 14008KT 07/05 A3031 RMK A01 T00660045  RH  087%=      5-min Rain = 0
KMC4 151650Z 14009KT 07/05 A3031 RMK A01 T00660045  RH  087%=      5-min Rain = 0
KMC4 151651Z 13008KT 07/05 A3031 RMK A01 T00660045  RH  086%=      5-min Rain = 0
KMC4 151652Z 13009KT 07/05 A3031 RMK A01 T00660045  RH  087%=      5-min Rain = 0
KMC4 151653Z 13008KT 07/05 A3031 RMK A01 T00660045  RH  087%=      5-min Rain = 0
KMC4 151654Z 13007KT 07/05 A3031 RMK A01 T00660045  RH  087%=      5-min Rain = 0
KMC4 151655Z 12007KT 07/05 A3031 RMK A01 T00660045  RH  087%=      5-min Rain = 0
KMC4 151656Z 13008KT 07/05 A3031 RMK A01 T00660046  RH  087%=      5-min Rain = 0
KMC4 151657Z 14007KT 07/05 A3031 RMK A01 T00660046  RH  087%=      5-min Rain = 0
KMC4 151658Z 13008KT 07/05 A3031 RMK A01 T00660046  RH  087%=      5-min Rain = 0
KMC4 151659Z 13007KT 07/05 A3031 RMK A01 T00670046  RH  087%=      5-min Rain = 0
KMC4 151700Z 13006KT 07/05 A3031 RMK A01 T00670046  RH  087%=      5-min Rain = 0
KMC4 151701Z 13006KT 07/05 A3031 RMK A01 T00670046  RH  086%=      5-min Rain = 0
KMC4 151702Z 14006KT 07/05 A3031 RMK A01 T00670046  RH  087%=      5-min Rain = 0
KMC4 151703Z 13007KT 07/05 A3031 RMK A01 T00670047  RH  087%=      5-min Rain = 0
KMC4 151704Z 14008KT 07/05 A3031 RMK A01 T00680046  RH  086%=      5-min Rain = 0
KMC4 151705Z 13008KT 07/05 A3031 RMK A01 T00680046  RH  086%=      5-min Rain = 0
KMC4 151706Z 13008KT 07/05 A3031 RMK A01 T00680046  RH  086%=      5-min Rain = 0
KMC4 151707Z 13009KT 07/05 A303 RMK A01 T00680046  RH  086%=      5-min Rain = 0
KMC4 151708Z 13009KT 07/05 A303 RMK A01 T00680045  RH  086%=      5-min Rain = 0
KMC4 151709Z 13009KT 07/05 A303 RMK A01 T00680045  RH  086%=      5-min Rain = 0
KMC4 151710Z 14008KT 07/05 A303 RMK A01 T00680046  RH  086%=      5-min Rain = 0
KMC4 151711Z 13009KT 07/05 A303 RMK A01 T00680046  RH  086%=      5-min Rain = 0
KMC4 151712Z 13010KT 07/05 A303 RMK A01 T00680046  RH  086%=      5-min Rain = 0
KMC4 151713Z 13010KT 07/05 A303 RMK A01 T00690046  RH  086%=      5-min Rain = 0
KMC4 151714Z 14010KT 07/05 A303 RMK A01 T00680046  RH  086%=      5-min Rain = 0
KMC4 151715Z 13010KT 07/05 A303 RMK A01 T00690046  RH  086%=      5-min Rain = 0
KMC4 151716Z 13010KT 07/05 A303 RMK A01 T00690046  RH  086%=      5-min Rain = 0
KMC4 151717Z 13008KT 07/05 A303 RMK A01 T00680046  RH  086%=      5-min Rain = 0
KMC4 151718Z 13010KT 07/05 A303 RMK A01 T00680046  RH  086%=      5-min Rain = 0
KMC4 151719Z 14009KT 07/05 A303 RMK A01 T00690046  RH  086%=      5-min Rain = 0
KMC4 151720Z 14009KT 07/05 A303 RMK A01 T00690046  RH  085%=      5-min Rain = 0
KMC4 151721Z 15008KT 07/05 A303 RMK A01 T00690046  RH  085%=      5-min Rain = 0
KMC4 151722Z 15009KT 07/05 A303 RMK A01 T00690045  RH  085%=      5-min Rain = 0
KMC4 151723Z 15009KT 07/05 A303 RMK A01 T00690045  RH  085%=      5-min Rain = 0
KMC4 151724Z 15010KT 07/05 A303 RMK A01 T00690045  RH  085%=      5-min Rain = 0
KMC4 151725Z 15010KT 07/05 A303 RMK A01 T00690045  RH  085%=      5-min Rain = 0
KMC4 151726Z 16010KT 07/05 A303 RMK A01 T00700045  RH  084%=      5-min Rain = 0
KMC4 151727Z 15009KT 07/05 A303 RMK A01 T00700045  RH  084%=      5-min Rain = 0
KMC4 151728Z 14008KT 07/05 A303 RMK A01 T00700046  RH  085%=      5-min Rain = 0
KMC4 151729Z 13008KT 07/05 A303 RMK A01 T00710048  RH  085%=      5-min Rain = 0
KMC4 151730Z 12011KT 07/05 A3029 RMK A01 T00720047  RH  084%=      5-min Rain = 0
KMC4 151731Z 12009KT 07/05 A3029 RMK A01 T00710046  RH  084%=      5-min Rain = 0
KMC4 151732Z 12009KT 07/05 A3029 RMK A01 T00710046  RH  084%=      5-min Rain = 0
KMC4 151733Z 12010KT 07/05 A3029 RMK A01 T00700045  RH  084%=      5-min Rain = 0
KMC4 151734Z 14009KT 07/05 A3029 RMK A01 T00700046  RH  085%=      5-min Rain = 0
KMC4 151735Z 14010KT 07/05 A3029 RMK A01 T00710047  RH  085%=      5-min Rain = 0
KMC4 151736Z 15010KT 07/05 A3029 RMK A01 T00720047  RH  084%=      5-min Rain = 0
KMC4 151737Z 16010KT 07/05 A3029 RMK A01 T00720046  RH  083%=      5-min Rain = 0
KMC4 151738Z 14010KT 07/05 A3029 RMK A01 T00720046  RH  084%=      5-min Rain = 0
KMC4 151739Z 15009KT 07/05 A3029 RMK A01 T00720046  RH  084%=      5-min Rain = 0
KMC4 151740Z 15009KT 07/05 A3029 RMK A01 T00720046  RH  083%=      5-min Rain = 0
KMC4 151741Z 16008KT 07/05 A303 RMK A01 T00720046  RH  083%=      5-min Rain = 0
KMC4 151742Z 16008KT 07/05 A303 RMK A01 T00730046  RH  083%=      5-min Rain = 0
KMC4 151743Z 16008KT 07/05 A303 RMK A01 T00730046  RH  083%=      5-min Rain = 0
KMC4 151744Z 16006KT 07/05 A303 RMK A01 T00730046  RH  083%=      5-min Rain = 0
KMC4 151745Z 16008KT 07/05 A303 RMK A01 T00730046  RH  083%=      5-min Rain = 0
KMC4 151746Z 16006KT 07/05 A303 RMK A01 T00730046  RH  083%=      5-min Rain = 0
KMC4 151747Z 16007KT 07/05 A303 RMK A01 T00730046  RH  083%=      5-min Rain = 0
KMC4 151748Z 15007KT 07/05 A303 RMK A01 T00740046  RH  083%=      5-min Rain = 0
KMC4 151749Z 14007KT 07/05 A303 RMK A01 T00740046  RH  083%=      5-min Rain = 0
KMC4 151750Z 14006KT 07/05 A3029 RMK A01 T00740046  RH  083%=      5-min Rain = 0
KMC4 151751Z 15005KT 07/05 A3029 RMK A01 T00730046  RH  083%=      5-min Rain = 0
KMC4 151752Z 16006KT 07/05 A3029 RMK A01 T00740046  RH  083%=      5-min Rain = 0
KMC4 151753Z 16006KT 07/05 A303 RMK A01 T00740046  RH  083%=      5-min Rain = 0
KMC4 151754Z 17004KT 07/05 A303 RMK A01 T00740046  RH  082%=      5-min Rain = 0
KMC4 151755Z 16003KT 07/05 A303 RMK A01 T00730046  RH  083%=      5-min Rain = 0
KMC4 151756Z 15005KT 07/05 A303 RMK A01 T00730046  RH  083%=      5-min Rain = 0
KMC4 151757Z 15005KT 07/05 A303 RMK A01 T00730046  RH  083%=      5-min Rain = 0
KMC4 151758Z 16005KT 07/05 A303 RMK A01 T00740047  RH  083%=      5-min Rain = 0
KMC4 151759Z 15005KT 07/05 A303 RMK A01 T00740047  RH  083%=      5-min Rain = 0
KMC4 151800Z 14005KT 07/05 A303 RMK A01 T00740047  RH  083%=      5-min Rain = 0
KMC4 151801Z 14005KT 07/05 A3029 RMK A01 T00740048  RH  084%=      5-min Rain = 0
KMC4 151802Z 15005KT 07/05 A3029 RMK A01 T00740047  RH  083%=      5-min Rain = 0
KMC4 151803Z 14003KT 07/05 A3029 RMK A01 T00740047  RH  083%=      5-min Rain = 0
KMC4 151804Z 12003KT 07/05 A3029 RMK A01 T00740047  RH  083%=      5-min Rain = 0
KMC4 151805Z 13004KT 07/05 A3029 RMK A01 T00740047  RH  083%=      5-min Rain = 0
KMC4 151806Z 13005KT 07/05 A3029 RMK A01 T00740048  RH  083%=      5-min Rain = 0
KMC4 151807Z 13005KT 07/05 A3029 RMK A01 T00740047  RH  083%=      5-min Rain = 0
KMC4 151808Z 13004KT 07/05 A3029 RMK A01 T00740047  RH  083%=      5-min Rain = 0
KMC4 151809Z 11004KT 07/05 A3029 RMK A01 T00730048  RH  084%=      5-min Rain = 0
KMC4 151810Z 13003KT 07/05 A3029 RMK A01 T00740048  RH  084%=      5-min Rain = 0
KMC4 151811Z 12004KT 07/05 A3029 RMK A01 T00730048  RH  084%=      5-min Rain = 0
KMC4 151812Z 13005KT 07/05 A3029 RMK A01 T00740049  RH  084%=      5-min Rain = 0
KMC4 151813Z 12004KT 07/05 A3029 RMK A01 T00740049  RH  084%=      5-min Rain = 0
KMC4 151814Z 12004KT 07/05 A3028 RMK A01 T00740047  RH  083%=      5-min Rain = 0
KMC4 151815Z 11004KT 07/05 A3028 RMK A01 T00730047  RH  084%=      5-min Rain = 0
KMC4 151816Z 09004KT 07/05 A3028 RMK A01 T00730048  RH  084%=      5-min Rain = 0
KMC4 151817Z 08004KT 07/05 A3028 RMK A01 T00740048  RH  084%=      5-min Rain = 0
KMC4 151818Z 08004KT 07/05 A3028 RMK A01 T00730048  RH  084%=      5-min Rain = 0
KMC4 151819Z 08004KT 07/05 A3028 RMK A01 T00740048  RH  084%=      5-min Rain = 0
KMC4 151820Z 09004KT 07/05 A3028 RMK A01 T00740049  RH  084%=      5-min Rain = 0
KMC4 151821Z 10002KT 07/05 A3028 RMK A01 T00740048  RH  083%=      5-min Rain = 0
KMC4 151822Z 10001KT 07/05 A3028 RMK A01 T00740048  RH  083%=      5-min Rain = 0
KMC4 151823Z 14002KT 08/05 A3028 RMK A01 T00750049  RH  084%=      5-min Rain = 0
KMC4 151824Z 12002KT 08/05 A3028 RMK A01 T00750048  RH  083%=      5-min Rain = 0
KMC4 151825Z 12002KT 08/05 A3028 RMK A01 T00760049  RH  083%=      5-min Rain = 0
KMC4 151826Z 12004KT 08/05 A3028 RMK A01 T00770049  RH  083%=      5-min Rain = 0
KMC4 151827Z 12004KT 08/05 A3028 RMK A01 T00770049  RH  082%=      5-min Rain = 0
KMC4 151828Z 13004KT 08/05 A3027 RMK A01 T00770049  RH  083%=      5-min Rain = 0
KMC4 151829Z 12004KT 08/05 A3027 RMK A01 T00770049  RH  083%=      5-min Rain = 0
KMC4 151830Z 12003KT 08/05 A3027 RMK A01 T00770048  RH  082%=      5-min Rain = 0
KMC4 151831Z 12003KT 08/05 A3027 RMK A01 T00760048  RH  082%=      5-min Rain = 0
KMC4 151832Z 12003KT 08/05 A3027 RMK A01 T00760048  RH  083%=      5-min Rain = 0
KMC4 151833Z 12005KT 08/05 A3027 RMK A01 T00760048  RH  083%=      5-min Rain = 0
KMC4 151834Z 12005KT 08/05 A3026 RMK A01 T00760048  RH  083%=      5-min Rain = 0
KMC4 151835Z 11004KT 08/05 A3026 RMK A01 T00760048  RH  082%=      5-min Rain = 0
KMC4 151836Z 12004KT 08/05 A3026 RMK A01 T00750048  RH  083%=      5-min Rain = 0
KMC4 151837Z 12004KT 08/05 A3026 RMK A01 T00760049  RH  083%=      5-min Rain = 0
KMC4 151838Z 12003KT 08/05 A3026 RMK A01 T00760048  RH  082%=      5-min Rain = 0
KMC4 151839Z 14002KT 08/05 A3027 RMK A01 T00770049  RH  082%=      5-min Rain = 0
KMC4 151840Z 14001KT 08/05 A3027 RMK A01 T00770049  RH  082%=      5-min Rain = 0
KMC4 151841Z 12001KT 08/05 A3027 RMK A01 T00780049  RH  082%=      5-min Rain = 0
KMC4 151842Z 12003KT 08/05 A3027 RMK A01 T00780049  RH  082%=      5-min Rain = 0
KMC4 151843Z 11003KT 08/05 A3026 RMK A01 T00790049  RH  082%=      5-min Rain = 0
KMC4 151844Z 13006KT 08/05 A3026 RMK A01 T00790050  RH  082%=      5-min Rain = 0
KMC4 151845Z 13004KT 08/05 A3026 RMK A01 T00790048  RH  080%=      5-min Rain = 0
KMC4 151846Z 12004KT 08/05 A3026 RMK A01 T00800048  RH  080%=      5-min Rain = 0
KMC4 151847Z 12003KT 08/05 A3026 RMK A01 T00790048  RH  081%=      5-min Rain = 0
KMC4 151848Z 13004KT 08/05 A3026 RMK A01 T00800049  RH  081%=      5-min Rain = 0
KMC4 151849Z 13006KT 08/05 A3026 RMK A01 T00810049  RH  081%=      5-min Rain = 0
KMC4 151850Z 15004KT 08/05 A3026 RMK A01 T00810048  RH  080%=      5-min Rain = 0
KMC4 151851Z 15003KT 08/05 A3026 RMK A01 T00810049  RH  080%=      5-min Rain = 0
KMC4 151852Z 16002KT 08/05 A3026 RMK A01 T00800048  RH  080%=      5-min Rain = 0
KMC4 151853Z 14002KT 08/05 A3026 RMK A01 T00800048  RH  080%=      5-min Rain = 0
KMC4 151854Z 13004KT 08/05 A3026 RMK A01 T00810049  RH  081%=      5-min Rain = 0
KMC4 151855Z 14003KT 08/05 A3026 RMK A01 T00810049  RH  080%=      5-min Rain = 0
KMC4 151856Z 17005KT 08/05 A3026 RMK A01 T00820049  RH  079%=      5-min Rain = 0
KMC4 151857Z 18005KT 08/05 A3025 RMK A01 T00820048  RH  079%=      5-min Rain = 0
KMC4 151858Z 17005KT 08/05 A3025 RMK A01 T00820049  RH  079%=      5-min Rain = 0
KMC4 151859Z 15005KT 08/05 A3025 RMK A01 T00820048  RH  080%=      5-min Rain = 0
KMC4 151900Z 13005KT 08/05 A3025 RMK A01 T00820049  RH  080%=      5-min Rain = 0
KMC4 151901Z 13004KT 08/05 A3025 RMK A01 T00820048  RH  079%=      5-min Rain = 0
KMC4 151902Z 14003KT 08/05 A3025 RMK A01 T00820048  RH  079%=      5-min Rain = 0
KMC4 151903Z 16002KT 08/05 A3025 RMK A01 T00820049  RH  079%=      5-min Rain = 0
KMC4 151904Z 13003KT 08/05 A3024 RMK A01 T00830050  RH  080%=      5-min Rain = 0
KMC4 151905Z 14005KT 08/05 A3024 RMK A01 T00840050  RH  079%=      5-min Rain = 0
KMC4 151906Z 13007KT 09/05 A3024 RMK A01 T00850050  RH  079%=      5-min Rain = 0
KMC4 151907Z 17006KT 09/05 A3024 RMK A01 T00860051  RH  079%=      5-min Rain = 0
KMC4 151908Z 18005KT 09/05 A3024 RMK A01 T00870051  RH  078%=      5-min Rain = 0
KMC4 151909Z 15006KT 09/05 A3024 RMK A01 T00860050  RH  078%=      5-min Rain = 0
KMC4 151910Z 17007KT 09/05 A3023 RMK A01 T00860051  RH  079%=      5-min Rain = 0
KMC4 151911Z 16007KT 09/05 A3023 RMK A01 T00860050  RH  078%=      5-min Rain = 0
KMC4 151912Z 16006KT 09/05 A3023 RMK A01 T00860049  RH  078%=      5-min Rain = 0
KMC4 151913Z 18005KT 09/05 A3023 RMK A01 T00850049  RH  078%=      5-min Rain = 0
KMC4 151914Z 18004KT 09/05 A3024 RMK A01 T00850050  RH  078%=      5-min Rain = 0
KMC4 151915Z 14002KT 09/05 A3024 RMK A01 T00860050  RH  079%=      5-min Rain = 0
KMC4 151916Z 15003KT 09/05 A3023 RMK A01 T00870050  RH  078%=      5-min Rain = 0
KMC4 151917Z 16003KT 09/05 A3023 RMK A01 T00870049  RH  077%=      5-min Rain = 0
KMC4 151918Z 18005KT 09/05 A3023 RMK A01 T00880050  RH  077%=      5-min Rain = 0
KMC4 151919Z 17004KT 09/05 A3023 RMK A01 T00870049  RH  077%=      5-min Rain = 0
KMC4 151920Z 18003KT 09/05 A3023 RMK A01 T00870050  RH  077%=      5-min Rain = 0
KMC4 151921Z 22002KT 09/05 A3023 RMK A01 T00870049  RH  077%=      5-min Rain = 0
KMC4 151922Z 20002KT 09/05 A3023 RMK A01 T00880050  RH  077%=      5-min Rain = 0
KMC4 151923Z 18002KT 09/05 A3023 RMK A01 T00890051  RH  077%=      5-min Rain = 0
KMC4 151924Z 15005KT 09/05 A3023 RMK A01 T00890050  RH  077%=      5-min Rain = 0
KMC4 151925Z 14004KT 09/05 A3023 RMK A01 T00890050  RH  076%=      5-min Rain = 0
KMC4 151926Z 14003KT 09/05 A3023 RMK A01 T00900050  RH  076%=      5-min Rain = 0
KMC4 151927Z 14002KT 09/05 A3023 RMK A01 T00890050  RH  076%=      5-min Rain = 0
KMC4 151928Z 14003KT 09/05 A3023 RMK A01 T00890049  RH  076%=      5-min Rain = 0
KMC4 151929Z 14005KT 09/05 A3023 RMK A01 T00890050  RH  076%=      5-min Rain = 0
KMC4 151930Z 14006KT 09/05 A3022 RMK A01 T00900051  RH  077%=      5-min Rain = 0
KMC4 151931Z 13005KT 09/05 A3022 RMK A01 T00900050  RH  076%=      5-min Rain = 0
KMC4 151932Z 15005KT 09/05 A3022 RMK A01 T00900050  RH  076%=      5-min Rain = 0
KMC4 151933Z 15004KT 09/05 A3022 RMK A01 T00910050  RH  076%=      5-min Rain = 0
KMC4 151934Z 13003KT 09/05 A3022 RMK A01 T00900051  RH  076%=      5-min Rain = 0
KMC4 151935Z 11002KT 09/05 A3022 RMK A01 T00900051  RH  077%=      5-min Rain = 0
KMC4 151936Z 15004KT 09/05 A3022 RMK A01 T00910051  RH  076%=      5-min Rain = 0
KMC4 151937Z 15005KT 09/05 A3022 RMK A01 T00930052  RH  076%=      5-min Rain = 0
KMC4 151938Z 14004KT 09/05 A3022 RMK A01 T00920051  RH  075%=      5-min Rain = 0
KMC4 151939Z 16003KT 09/05 A3022 RMK A01 T00910051  RH  076%=      5-min Rain = 0
KMC4 151940Z 16003KT 09/05 A3022 RMK A01 T00920051  RH  076%=      5-min Rain = 0
KMC4 151941Z 17002KT 09/05 A3022 RMK A01 T00920051  RH  075%=      5-min Rain = 0
KMC4 151942Z 16003KT 09/05 A3022 RMK A01 T00930051  RH  075%=      5-min Rain = 0
KMC4 151943Z 15002KT 09/05 A3022 RMK A01 T00930051  RH  075%=      5-min Rain = 0
KMC4 151944Z 16004KT 09/05 A3022 RMK A01 T00940051  RH  075%=      5-min Rain = 0
KMC4 151945Z 14006KT 09/05 A3022 RMK A01 T00940052  RH  075%=      5-min Rain = 0
KMC4 151946Z 14007KT 09/05 A3022 RMK A01 T00940052  RH  075%=      5-min Rain = 0
KMC4 151947Z 14007KT 09/05 A3022 RMK A01 T00940052  RH  075%=      5-min Rain = 0
KMC4 151948Z 14006KT 09/05 A3022 RMK A01 T00940052  RH  075%=      5-min Rain = 0
KMC4 151949Z 13006KT 09/05 A3022 RMK A01 T00940051  RH  075%=      5-min Rain = 0
KMC4 151950Z 13006KT 09/05 A3022 RMK A01 T00930051  RH  075%=      5-min Rain = 0
KMC4 151951Z 11004KT 09/05 A3022 RMK A01 T00920051  RH  075%=      5-min Rain = 0
KMC4 151952Z 12004KT 09/05 A3022 RMK A01 T00920051  RH  076%=      5-min Rain = 0
KMC4 151953Z 11003KT 09/05 A3021 RMK A01 T00920051  RH  076%=      5-min Rain = 0
KMC4 151954Z 11003KT 09/05 A3021 RMK A01 T00920050  RH  075%=      5-min Rain = 0
KMC4 151955Z 13003KT 09/05 A3021 RMK A01 T00940052  RH  075%=      5-min Rain = 0
KMC4 151956Z 12002KT 10/05 A3021 RMK A01 T00950052  RH  075%=      5-min Rain = 0
KMC4 151957Z 15005KT 10/05 A3021 RMK A01 T00960053  RH  075%=      5-min Rain = 0
KMC4 151958Z 16005KT 10/05 A3021 RMK A01 T00960053  RH  074%=      5-min Rain = 0
KMC4 151959Z 15004KT 10/05 A3021 RMK A01 T00960052  RH  074%=      5-min Rain = 0
KMC4 152000Z 13005KT 10/05 A3021 RMK A01 T00960051  RH  074%=      5-min Rain = 0
KMC4 152001Z 12006KT 10/05 A3021 RMK A01 T00960051  RH  074%=      5-min Rain = 0
KMC4 152002Z 14004KT 10/05 A3021 RMK A01 T00960051  RH  074%=      5-min Rain = 0
KMC4 152003Z 14005KT 10/05 A3021 RMK A01 T00960051  RH  074%=      5-min Rain = 0
KMC4 152004Z 13004KT 10/05 A3021 RMK A01 T00960051  RH  073%=      5-min Rain = 0
KMC4 152005Z 12004KT 10/05 A302 RMK A01 T00970052  RH  073%=      5-min Rain = 0
KMC4 152006Z 11005KT 10/05 A302 RMK A01 T00970052  RH  073%=      5-min Rain = 0
KMC4 152007Z 11005KT 10/05 A302 RMK A01 T00970052  RH  073%=      5-min Rain = 0
KMC4 152008Z 14005KT 10/05 A302 RMK A01 T00960052  RH  074%=      5-min Rain = 0
KMC4 152009Z 17005KT 10/05 A302 RMK A01 T00980054  RH  074%=      5-min Rain = 0
KMC4 152010Z 20003KT 10/05 A302 RMK A01 T01000053  RH  072%=      5-min Rain = 0
KMC4 152011Z 16004KT 10/05 A302 RMK A01 T01000053  RH  073%=      5-min Rain = 0
KMC4 152012Z 20001KT 10/05 A302 RMK A01 T01000052  RH  072%=      5-min Rain = 0
KMC4 152013Z 24001KT 10/05 A302 RMK A01 T01000052  RH  072%=      5-min Rain = 0
KMC4 152014Z 15002KT 10/05 A302 RMK A01 T00990053  RH  073%=      5-min Rain = 0
KMC4 152015Z 17006KT 10/05 A302 RMK A01 T01000053  RH  073%=      5-min Rain = 0
KMC4 152016Z 18005KT 10/05 A302 RMK A01 T00990052  RH  072%=      5-min Rain = 0
KMC4 152017Z 16002KT 10/05 A302 RMK A01 T00990052  RH  073%=      5-min Rain = 0
KMC4 152018Z 13006KT 10/05 A302 RMK A01 T00990054  RH  074%=      5-min Rain = 0
KMC4 152019Z 14005KT 10/05 A302 RMK A01 T01020054  RH  072%=      5-min Rain = 0
KMC4 152020Z 16006KT 10/06 A302 RMK A01 T01040056  RH  072%=      5-min Rain = 0
KMC4 152021Z 16005KT 11/05 A302 RMK A01 T01050053  RH  070%=      5-min Rain = 0
KMC4 152022Z 14003KT 10/05 A302 RMK A01 T01040053  RH  071%=      5-min Rain = 0
KMC4 152023Z 16004KT 10/05 A302 RMK A01 T01040054  RH  071%=      5-min Rain = 0
KMC4 152024Z 12001KT 11/05 A302 RMK A01 T01060054  RH  070%=      5-min Rain = 0
KMC4 152025Z 15004KT 11/05 A302 RMK A01 T01080054  RH  069%=      5-min Rain = 0
KMC4 152026Z 17005KT 11/05 A302 RMK A01 T01080054  RH  069%=      5-min Rain = 0
KMC4 152027Z 17005KT 11/05 A302 RMK A01 T01070053  RH  069%=      5-min Rain = 0
KMC4 152028Z 15002KT 11/05 A302 RMK A01 T01050052  RH  070%=      5-min Rain = 0
KMC4 152029Z 18003KT 11/05 A302 RMK A01 T01050053  RH  070%=      5-min Rain = 0
KMC4 152030Z 18006KT 11/05 A302 RMK A01 T01050054  RH  070%=      5-min Rain = 0
KMC4 152031Z 16004KT 11/05 A302 RMK A01 T01060054  RH  070%=      5-min Rain = 0
KMC4 152032Z 16005KT 11/06 A302 RMK A01 T01060055  RH  070%=      5-min Rain = 0
KMC4 152033Z 16004KT 11/05 A302 RMK A01 T01080054  RH  069%=      5-min Rain = 0
KMC4 152034Z 17004KT 11/05 A302 RMK A01 T01080054  RH  069%=      5-min Rain = 0
KMC4 152035Z 15004KT 11/05 A302 RMK A01 T01070053  RH  070%=      5-min Rain = 0
KMC4 152036Z 15004KT 11/05 A302 RMK A01 T01060053  RH  070%=      5-min Rain = 0
KMC4 152037Z 13003KT 11/05 A302 RMK A01 T01050054  RH  070%=      5-min Rain = 0
KMC4 152038Z 13002KT 11/05 A302 RMK A01 T01060054  RH  070%=      5-min Rain = 0
KMC4 152039Z 16006KT 11/06 A302 RMK A01 T01100057  RH  070%=      5-min Rain = 0
KMC4 152040Z 19005KT 11/06 A302 RMK A01 T01110056  RH  069%=      5-min Rain = 0
KMC4 152041Z 16004KT 11/06 A302 RMK A01 T01100055  RH  069%=      5-min Rain = 0
KMC4 152042Z 13005KT 11/06 A3019 RMK A01 T01080055  RH  070%=      5-min Rain = 0
KMC4 152043Z 12005KT 11/06 A3019 RMK A01 T01090056  RH  070%=      5-min Rain = 0
KMC4 152044Z 12006KT 11/06 A3019 RMK A01 T01100056  RH  069%=      5-min Rain = 0
KMC4 152045Z 13006KT 11/06 A3019 RMK A01 T01100055  RH  069%=      5-min Rain = 0
KMC4 152046Z 12005KT 11/06 A3019 RMK A01 T01100056  RH  069%=      5-min Rain = 0
KMC4 152047Z 10005KT 11/06 A3019 RMK A01 T01100055  RH  069%=      5-min Rain = 0
KMC4 152048Z 11004KT 11/06 A3019 RMK A01 T01100055  RH  069%=      5-min Rain = 0
KMC4 152049Z 12003KT 11/06 A3019 RMK A01 T01100056  RH  070%=      5-min Rain = 0
KMC4 152050Z 11002KT 11/06 A3019 RMK A01 T01110057  RH  069%=      5-min Rain = 0
KMC4 152051Z 12006KT 11/06 A3019 RMK A01 T01120057  RH  069%=      5-min Rain = 0
KMC4 152052Z 13007KT 11/06 A3019 RMK A01 T01140059  RH  069%=      5-min Rain = 0
KMC4 152053Z 13007KT 12/06 A3019 RMK A01 T01150057  RH  068%=      5-min Rain = 0
KMC4 152054Z 14006KT 12/06 A3019 RMK A01 T01150056  RH  067%=      5-min Rain = 0
KMC4 152055Z 14007KT 12/06 A3019 RMK A01 T01150056  RH  067%=      5-min Rain = 0
KMC4 152056Z 13006KT 12/06 A3019 RMK A01 T01150057  RH  068%=      5-min Rain = 0
KMC4 152057Z 13006KT 12/06 A3019 RMK A01 T01150057  RH  067%=      5-min Rain = 0
KMC4 152058Z 13006KT 12/06 A3019 RMK A01 T01150057  RH  068%=      5-min Rain = 0
KMC4 152059Z 11006KT 12/06 A3019 RMK A01 T01160058  RH  068%=      5-min Rain = 0
KMC4 152100Z 13007KT 11/06 A3019 RMK A01 T01140057  RH  068%=      5-min Rain = 0
KMC4 152101Z 17007KT 11/06 A3019 RMK A01 T01130058  RH  069%=      5-min Rain = 0
KMC4 152102Z 16008KT 11/06 A3019 RMK A01 T01130058  RH  069%=      5-min Rain = 0
KMC4 152103Z 16005KT 11/06 A3019 RMK A01 T01120057  RH  069%=      5-min Rain = 0
KMC4 152104Z 16007KT 11/06 A3019 RMK A01 T01130060  RH  069%=      5-min Rain = 0
KMC4 152105Z 16007KT 11/06 A3019 RMK A01 T01140058  RH  068%=      5-min Rain = 0
KMC4 152106Z 14005KT 11/06 A3019 RMK A01 T01130058  RH  069%=      5-min Rain = 0
KMC4 152107Z 13006KT 11/06 A3019 RMK A01 T01140061  RH  070%=      5-min Rain = 0
KMC4 152108Z 12008KT 12/06 A3019 RMK A01 T01170062  RH  069%=      5-min Rain = 0
KMC4 152109Z 12008KT 12/06 A3019 RMK A01 T01180062  RH  068%=      5-min Rain = 0
KMC4 152110Z 12006KT 12/06 A3019 RMK A01 T01160059  RH  068%=      5-min Rain = 0
KMC4 152111Z 11006KT 11/06 A3019 RMK A01 T01140059  RH  069%=      5-min Rain = 0
KMC4 152112Z 11008KT 11/06 A3019 RMK A01 T01130059  RH  069%=      5-min Rain = 0
KMC4 152113Z 12008KT 11/06 A3018 RMK A01 T01130060  RH  070%=      5-min Rain = 0
KMC4 152114Z 12006KT 11/06 A3018 RMK A01 T01130060  RH  070%=      5-min Rain = 0
KMC4 152115Z 12007KT 11/06 A3018 RMK A01 T01130059  RH  069%=      5-min Rain = 0
KMC4 152116Z 13007KT 11/06 A3018 RMK A01 T01140060  RH  069%=      5-min Rain = 0
KMC4 152117Z 13007KT 11/06 A3018 RMK A01 T01140060  RH  069%=      5-min Rain = 0
KMC4 152118Z 11008KT 12/06 A3018 RMK A01 T01160061  RH  069%=      5-min Rain = 0
KMC4 152119Z 13006KT 12/06 A3018 RMK A01 T01160061  RH  069%=      5-min Rain = 0
KMC4 152120Z 15005KT 12/06 A3018 RMK A01 T01170062  RH  069%=      5-min Rain = 0
KMC4 152121Z 14008KT 12/06 A3018 RMK A01 T01180061  RH  068%=      5-min Rain = 0
KMC4 152122Z 14008KT 12/06 A3018 RMK A01 T01200062  RH  068%=      5-min Rain = 0
KMC4 152123Z 13006KT 12/06 A3018 RMK A01 T01200061  RH  067%=      5-min Rain = 0
KMC4 152124Z 12007KT 12/06 A3018 RMK A01 T01200062  RH  068%=      5-min Rain = 0
KMC4 152125Z 13005KT 12/06 A3018 RMK A01 T01200062  RH  068%=      5-min Rain = 0
KMC4 152126Z 14006KT 12/06 A3018 RMK A01 T01200062  RH  068%=      5-min Rain = 0
KMC4 152127Z 15008KT 12/06 A3018 RMK A01 T01210063  RH  068%=      5-min Rain = 0
KMC4 152128Z 14008KT 12/06 A3018 RMK A01 T01210061  RH  067%=      5-min Rain = 0
KMC4 152129Z 14006KT 12/06 A3018 RMK A01 T01200061  RH  067%=      5-min Rain = 0
KMC4 152130Z 13008KT 12/06 A3018 RMK A01 T01200063  RH  068%=      5-min Rain = 0
KMC4 152131Z 15008KT 12/06 A3018 RMK A01 T01200062  RH  068%=      5-min Rain = 0
KMC4 152132Z 13007KT 12/06 A3018 RMK A01 T01200063  RH  068%=      5-min Rain = 0
KMC4 152133Z 13006KT 12/06 A3018 RMK A01 T01200062  RH  068%=      5-min Rain = 0
KMC4 152134Z 12005KT 12/06 A3018 RMK A01 T01200062  RH  067%=      5-min Rain = 0
KMC4 152135Z 11005KT 12/06 A3018 RMK A01 T01200064  RH  068%=      5-min Rain = 0
KMC4 152136Z 12005KT 12/06 A3018 RMK A01 T01200062  RH  068%=      5-min Rain = 0
KMC4 152137Z 13009KT 12/06 A3018 RMK A01 T01200064  RH  068%=      5-min Rain = 0
KMC4 152138Z 13007KT 12/06 A3018 RMK A01 T01210063  RH  068%=      5-min Rain = 0
KMC4 152139Z 12008KT 12/06 A3018 RMK A01 T01200063  RH  068%=      5-min Rain = 0
KMC4 152140Z 11008KT 12/06 A3018 RMK A01 T01200063  RH  068%=      5-min Rain = 0
KMC4 152141Z 11009KT 12/06 A3018 RMK A01 T01190063  RH  068%=      5-min Rain = 0
KMC4 152142Z 12008KT 12/06 A3018 RMK A01 T01190063  RH  068%=      5-min Rain = 0
KMC4 152143Z 12008KT 12/06 A3018 RMK A01 T01200064  RH  069%=      5-min Rain = 0
KMC4 152144Z 12009KT 12/06 A3018 RMK A01 T01200063  RH  068%=      5-min Rain = 0
KMC4 152145Z 12009KT 12/06 A3018 RMK A01 T01190063  RH  068%=      5-min Rain = 0
KMC4 152146Z 11007KT 12/06 A3018 RMK A01 T01190063  RH  069%=      5-min Rain = 0
KMC4 152147Z 12007KT 12/06 A3018 RMK A01 T01180064  RH  069%=      5-min Rain = 0
KMC4 152148Z 11008KT 12/07 A3018 RMK A01 T01200066  RH  069%=      5-min Rain = 0
KMC4 152149Z 11008KT 12/06 A3018 RMK A01 T01210064  RH  068%=      5-min Rain = 0
KMC4 152150Z 11007KT 12/06 A3018 RMK A01 T01190063  RH  068%=      5-min Rain = 0
KMC4 152151Z 10008KT 12/06 A3018 RMK A01 T01170062  RH  069%=      5-min Rain = 0
KMC4 152152Z 11008KT 12/06 A3018 RMK A01 T01160063  RH  070%=      5-min Rain = 0
KMC4 152153Z 13007KT 12/06 A3018 RMK A01 T01160063  RH  070%=      5-min Rain = 0
KMC4 152154Z 14007KT 12/06 A3018 RMK A01 T01170064  RH  070%=      5-min Rain = 0
KMC4 152155Z 15008KT 12/06 A3018 RMK A01 T01180064  RH  069%=      5-min Rain = 0
KMC4 152156Z 14009KT 12/06 A3018 RMK A01 T01180064  RH  069%=      5-min Rain = 0
KMC4 152157Z 14009KT 12/06 A3018 RMK A01 T01180064  RH  070%=      5-min Rain = 0
KMC4 152158Z 13007KT 12/06 A3018 RMK A01 T01180064  RH  070%=      5-min Rain = 0
KMC4 152159Z 14006KT 12/07 A3018 RMK A01 T01190065  RH  070%=      5-min Rain = 0
KMC4 152200Z 15007KT 12/07 A3018 RMK A01 T01190066  RH  070%=      5-min Rain = 0
KMC4 152201Z 14007KT 12/07 A3018 RMK A01 T01200065  RH  069%=      5-min Rain = 0
KMC4 152202Z 13007KT 12/07 A3018 RMK A01 T01200066  RH  070%=      5-min Rain = 0
KMC4 152203Z 12008KT 12/07 A3018 RMK A01 T01200065  RH  069%=      5-min Rain = 0
KMC4 152204Z 14009KT 12/06 A3018 RMK A01 T01190064  RH  069%=      5-min Rain = 0
KMC4 152205Z 13009KT 12/06 A3018 RMK A01 T01180064  RH  069%=      5-min Rain = 0
KMC4 152206Z 13008KT 12/07 A3018 RMK A01 T01180065  RH  070%=      5-min Rain = 0
KMC4 152207Z 13009KT 12/07 A3018 RMK A01 T01180065  RH  070%=      5-min Rain = 0
KMC4 152208Z 13008KT 12/06 A3018 RMK A01 T01180064  RH  069%=      5-min Rain = 0
KMC4 152209Z 13007KT 12/07 A3018 RMK A01 T01170065  RH  070%=      5-min Rain = 0
KMC4 152210Z 12007KT 12/06 A3018 RMK A01 T01170064  RH  070%=      5-min Rain = 0
KMC4 152211Z 13006KT 12/07 A3018 RMK A01 T01180065  RH  070%=      5-min Rain = 0
KMC4 152212Z 12008KT 12/07 A3017 RMK A01 T01180065  RH  070%=      5-min Rain = 0
KMC4 152213Z 13008KT 12/06 A3018 RMK A01 T01170064  RH  070%=      5-min Rain = 0
KMC4 152214Z 14007KT 12/06 A3018 RMK A01 T01170064  RH  070%=      5-min Rain = 0
KMC4 152215Z 13008KT 12/06 A3018 RMK A01 T01170064  RH  070%=      5-min Rain = 0
KMC4 152216Z 12005KT 12/06 A3018 RMK A01 T01170064  RH  070%=      5-min Rain = 0
KMC4 152217Z 11006KT 12/06 A3018 RMK A01 T01160064  RH  070%=      5-min Rain = 0
KMC4 152218Z 10006KT 11/06 A3018 RMK A01 T01140063  RH  071%=      5-min Rain = 0
KMC4 152219Z 10006KT 11/06 A3018 RMK A01 T01130063  RH  071%=      5-min Rain = 0
KMC4 152220Z 12007KT 11/06 A3017 RMK A01 T01130064  RH  072%=      5-min Rain = 0
KMC4 152221Z 13008KT 12/07 A3018 RMK A01 T01150066  RH  072%=      5-min Rain = 0
KMC4 152222Z 13008KT 12/07 A3018 RMK A01 T01160065  RH  071%=      5-min Rain = 0
KMC4 152223Z 13007KT 12/07 A3017 RMK A01 T01170065  RH  071%=      5-min Rain = 0
KMC4 152224Z 13006KT 12/07 A3017 RMK A01 T01160065  RH  070%=      5-min Rain = 0
KMC4 152225Z 11006KT 12/07 A3017 RMK A01 T01170065  RH  070%=      5-min Rain = 0
KMC4 152226Z 10007KT 12/07 A3017 RMK A01 T01170066  RH  071%=      5-min Rain = 0
KMC4 152227Z 11008KT 12/07 A3017 RMK A01 T01170065  RH  070%=      5-min Rain = 0
KMC4 152228Z 12008KT 12/07 A3017 RMK A01 T01170066  RH  071%=      5-min Rain = 0
KMC4 152229Z 12007KT 12/07 A3017 RMK A01 T01170065  RH  070%=      5-min Rain = 0
KMC4 152230Z 12008KT 12/07 A3017 RMK A01 T01170065  RH  071%=      5-min Rain = 0
KMC4 152231Z 12005KT 12/07 A3017 RMK A01 T01170065  RH  070%=      5-min Rain = 0
KMC4 152232Z 12006KT 12/07 A3017 RMK A01 T01170065  RH  071%=      5-min Rain = 0
KMC4 152233Z 13007KT 12/07 A3017 RMK A01 T01180067  RH  071%=      5-min Rain = 0
KMC4 152234Z 12007KT 12/07 A3017 RMK A01 T01190066  RH  070%=      5-min Rain = 0
KMC4 152235Z 12007KT 12/07 A3017 RMK A01 T01190066  RH  070%=      5-min Rain = 0
KMC4 152236Z 13008KT 12/07 A3017 RMK A01 T01190067  RH  071%=      5-min Rain = 0
KMC4 152237Z 13008KT 12/07 A3017 RMK A01 T01190067  RH  070%=      5-min Rain = 0
KMC4 152238Z 13007KT 12/07 A3017 RMK A01 T01200066  RH  070%=      5-min Rain = 0
KMC4 152239Z 12007KT 12/07 A3017 RMK A01 T01200066  RH  070%=      5-min Rain = 0
KMC4 152240Z 13007KT 12/07 A3016 RMK A01 T01200066  RH  070%=      5-min Rain = 0
KMC4 152241Z 13008KT 12/07 A3016 RMK A01 T01200067  RH  070%=      5-min Rain = 0
KMC4 152242Z 13009KT 12/07 A3016 RMK A01 T01200068  RH  070%=      5-min Rain = 0
KMC4 152243Z 13007KT 12/07 A3017 RMK A01 T01210067  RH  070%=      5-min Rain = 0
KMC4 152244Z 12007KT 12/07 A3017 RMK A01 T01220068  RH  070%=      5-min Rain = 0
KMC4 152245Z 12008KT 12/07 A3017 RMK A01 T01210067  RH  070%=      5-min Rain = 0
KMC4 152246Z 12008KT 12/07 A3017 RMK A01 T01200067  RH  070%=      5-min Rain = 0
KMC4 152247Z 13007KT 12/07 A3016 RMK A01 T01200068  RH  070%=      5-min Rain = 0
KMC4 152248Z 12006KT 12/07 A3016 RMK A01 T01200067  RH  070%=      5-min Rain = 0
KMC4 152249Z 12007KT 12/07 A3016 RMK A01 T01200067  RH  070%=      5-min Rain = 0
KMC4 152250Z 12010KT 12/07 A3016 RMK A01 T01200067  RH  070%=      5-min Rain = 0
KMC4 152251Z 12009KT 12/07 A3016 RMK A01 T01200067  RH  070%=      5-min Rain = 0
KMC4 152252Z 11008KT 12/07 A3016 RMK A01 T01190067  RH  070%=      5-min Rain = 0
KMC4 152253Z 12007KT 12/07 A3016 RMK A01 T01180066  RH  071%=      5-min Rain = 0
KMC4 152254Z 11006KT 12/07 A3016 RMK A01 T01180067  RH  071%=      5-min Rain = 0
KMC4 152255Z 13007KT 12/07 A3016 RMK A01 T01180067  RH  071%=      5-min Rain = 0
KMC4 152256Z 13010KT 12/07 A3016 RMK A01 T01180068  RH  071%=      5-min Rain = 0
KMC4 152257Z 12010KT 12/07 A3016 RMK A01 T01190067  RH  071%=      5-min Rain = 0
KMC4 152258Z 14009KT 12/07 A3016 RMK A01 T01190068  RH  071%=      5-min Rain = 0
KMC4 152259Z 13009KT 12/07 A3016 RMK A01 T01190067  RH  071%=      5-min Rain = 0
KMC4 152300Z 13008KT 12/07 A3016 RMK A01 T01190067  RH  071%=      5-min Rain = 0
KMC4 152301Z 13008KT 12/07 A3016 RMK A01 T01200068  RH  071%=      5-min Rain = 0
KMC4 152302Z 13008KT 12/07 A3016 RMK A01 T01200067  RH  070%=      5-min Rain = 0
KMC4 152303Z 13009KT 12/07 A3016 RMK A01 T01200068  RH  071%=      5-min Rain = 0
KMC4 152304Z 13009KT 12/07 A3016 RMK A01 T01200068  RH  070%=      5-min Rain = 0
KMC4 152305Z 12007KT 12/07 A3016 RMK A01 T01200068  RH  070%=      5-min Rain = 0
KMC4 152306Z 13008KT 12/07 A3016 RMK A01 T01200069  RH  071%=      5-min Rain = 0
KMC4 152307Z 13009KT 12/07 A3016 RMK A01 T01200068  RH  071%=      5-min Rain = 0
KMC4 152308Z 14009KT 12/07 A3016 RMK A01 T01200069  RH  071%=      5-min Rain = 0
KMC4 152309Z 14009KT 12/07 A3016 RMK A01 T01210069  RH  071%=      5-min Rain = 0
KMC4 152310Z 13009KT 12/07 A3016 RMK A01 T01220070  RH  071%=      5-min Rain = 0
KMC4 152311Z 13009KT 12/07 A3016 RMK A01 T01220070  RH  070%=      5-min Rain = 0
KMC4 152312Z 12009KT 12/07 A3016 RMK A01 T01220069  RH  070%=      5-min Rain = 0
KMC4 152313Z 11008KT 12/07 A3016 RMK A01 T01210068  RH  070%=      5-min Rain = 0
KMC4 152314Z 11009KT 12/07 A3016 RMK A01 T01200068  RH  070%=      5-min Rain = 0
KMC4 152315Z 11009KT 12/07 A3016 RMK A01 T01200068  RH  071%=      5-min Rain = 0
KMC4 152316Z 12008KT 12/07 A3016 RMK A01 T01190068  RH  071%=      5-min Rain = 0
KMC4 152317Z 11007KT 12/07 A3016 RMK A01 T01180069  RH  071%=      5-min Rain = 0
KMC4 152318Z 11008KT 12/07 A3016 RMK A01 T01180069  RH  071%=      5-min Rain = 0
KMC4 152319Z 12008KT 12/07 A3016 RMK A01 T01180069  RH  072%=      5-min Rain = 0
KMC4 152320Z 12010KT 12/07 A3016 RMK A01 T01190068  RH  071%=      5-min Rain = 0
KMC4 152321Z 12008KT 12/07 A3016 RMK A01 T01180068  RH  071%=      5-min Rain = 0
KMC4 152322Z 11007KT 12/07 A3016 RMK A01 T01180068  RH  072%=      5-min Rain = 0
KMC4 152323Z 11007KT 12/07 A3016 RMK A01 T01180069  RH  072%=      5-min Rain = 0
KMC4 152324Z 12009KT 12/07 A3016 RMK A01 T01180069  RH  072%=      5-min Rain = 0
KMC4 152325Z 12008KT 12/07 A3016 RMK A01 T01180068  RH  071%=      5-min Rain = 0
KMC4 152326Z 12006KT 12/07 A3016 RMK A01 T01180068  RH  072%=      5-min Rain = 0
KMC4 152327Z 11006KT 12/07 A3016 RMK A01 T01180069  RH  072%=      5-min Rain = 0
KMC4 152328Z 11008KT 12/07 A3016 RMK A01 T01180069  RH  072%=      5-min Rain = 0
KMC4 152329Z 12008KT 12/07 A3016 RMK A01 T01170068  RH  072%=      5-min Rain = 0
KMC4 152330Z 11008KT 12/07 A3016 RMK A01 T01160068  RH  072%=      5-min Rain = 0
KMC4 152331Z 11008KT 12/07 A3016 RMK A01 T01160068  RH  072%=      5-min Rain = 0
KMC4 152332Z 11007KT 12/07 A3016 RMK A01 T01150068  RH  073%=      5-min Rain = 0
KMC4 152333Z 12008KT 12/07 A3016 RMK A01 T01150068  RH  073%=      5-min Rain = 0
KMC4 152334Z 12008KT 12/07 A3016 RMK A01 T01150068  RH  073%=      5-min Rain = 0
KMC4 152335Z 12008KT 12/07 A3016 RMK A01 T01150068  RH  073%=      5-min Rain = 0
KMC4 152336Z 13008KT 12/07 A3016 RMK A01 T01150069  RH  073%=      5-min Rain = 0
KMC4 152337Z 12007KT 12/07 A3016 RMK A01 T01150069  RH  073%=      5-min Rain = 0
KMC4 152338Z 11007KT 12/07 A3016 RMK A01 T01150069  RH  073%=      5-min Rain = 0
KMC4 152339Z 11006KT 12/07 A3016 RMK A01 T01150069  RH  073%=      5-min Rain = 0
KMC4 152340Z 11007KT 12/07 A3016 RMK A01 T01150069  RH  073%=      5-min Rain = 0
KMC4 152341Z 11007KT 11/07 A3016 RMK A01 T01140068  RH  074%=      5-min Rain = 0
KMC4 152342Z 11008KT 11/07 A3016 RMK A01 T01140068  RH  074%=      5-min Rain = 0
KMC4 152343Z 11008KT 11/07 A3016 RMK A01 T01130068  RH  074%=      5-min Rain = 0
KMC4 152344Z 11009KT 11/07 A3016 RMK A01 T01120068  RH  074%=      5-min Rain = 0
KMC4 152345Z 11008KT 11/07 A3016 RMK A01 T01110068  RH  075%=      5-min Rain = 0
KMC4 152346Z 11007KT 11/07 A3016 RMK A01 T01110068  RH  075%=      5-min Rain = 0
KMC4 152347Z 11007KT 11/07 A3016 RMK A01 T01100068  RH  075%=      5-min Rain = 0
KMC4 152348Z 11006KT 11/07 A3016 RMK A01 T01100068  RH  075%=      5-min Rain = 0
KMC4 152349Z 10007KT 11/07 A3016 RMK A01 T01100068  RH  075%=      5-min Rain = 0
KMC4 152350Z 11008KT 11/07 A3016 RMK A01 T01090068  RH  075%=      5-min Rain = 0
KMC4 152351Z 11009KT 11/07 A3016 RMK A01 T01080067  RH  076%=      5-min Rain = 0
KMC4 152352Z 11009KT 11/07 A3016 RMK A01 T01070067  RH  076%=      5-min Rain = 0
KMC4 152353Z 11008KT 11/07 A3016 RMK A01 T01060066  RH  076%=      5-min Rain = 0
KMC4 152354Z 11008KT 11/07 A3016 RMK A01 T01050067  RH  077%=      5-min Rain = 0
KMC4 152355Z 11008KT 11/07 A3016 RMK A01 T01050067  RH  077%=      5-min Rain = 0
KMC4 152356Z 11008KT 11/07 A3016 RMK A01 T01050067  RH  077%=      5-min Rain = 0
KMC4 152357Z 11009KT 10/07 A3016 RMK A01 T01040067  RH  078%=      5-min Rain = 0
KMC4 152358Z 11008KT 10/07 A3016 RMK A01 T01030066  RH  078%=      5-min Rain = 0
KMC4 152359Z 11008KT 10/07 A3016 RMK A01 T01030067  RH  078%=      5-min Rain = 0
KMC4 160000Z 11008KT 10/07 A3016 RMK A01 T01020067  RH  078%=      5-min Rain = 0
KMC4 160001Z 11007KT 10/07 A3016 RMK A01 T01020066  RH  079%=      5-min Rain = 0
KMC4 160002Z 11007KT 10/07 A3016 RMK A01 T01020067  RH  079%=      5-min Rain = 0
KMC4 160003Z 11008KT 10/07 A3016 RMK A01 T01020067  RH  079%=      5-min Rain = 0
KMC4 160004Z 11007KT 10/07 A3016 RMK A01 T01010066  RH  079%=      5-min Rain = 0
KMC4 160005Z 10007KT 10/07 A3016 RMK A01 T01010067  RH  079%=      5-min Rain = 0
KMC4 160006Z 10006KT 10/07 A3016 RMK A01 T01000066  RH  079%=      5-min Rain = 0
KMC4 160007Z 10007KT 10/07 A3016 RMK A01 T01000067  RH  080%=      5-min Rain = 0
KMC4 160008Z 11007KT 10/07 A3016 RMK A01 T01000067  RH  080%=      5-min Rain = 0
KMC4 160009Z 10006KT 10/07 A3016 RMK A01 T01000067  RH  080%=      5-min Rain = 0
KMC4 160010Z 10007KT 10/07 A3016 RMK A01 T00990067  RH  080%=      5-min Rain = 0
KMC4 160011Z 10006KT 10/07 A3016 RMK A01 T00990067  RH  080%=      5-min Rain = 0
KMC4 160012Z 10007KT 10/07 A3016 RMK A01 T00990067  RH  080%=      5-min Rain = 0
KMC4 160013Z 10006KT 10/07 A3016 RMK A01 T00990067  RH  081%=      5-min Rain = 0
KMC4 160014Z 11006KT 10/07 A3016 RMK A01 T00990067  RH  081%=      5-min Rain = 0
KMC4 160015Z 11006KT 10/07 A3017 RMK A01 T00990067  RH  081%=      5-min Rain = 0
KMC4 160016Z 11006KT 10/07 A3017 RMK A01 T00980067  RH  081%=      5-min Rain = 0
KMC4 160017Z 11006KT 10/07 A3017 RMK A01 T00980067  RH  081%=      5-min Rain = 0
KMC4 160018Z 11007KT 10/07 A3017 RMK A01 T00990068  RH  081%=      5-min Rain = 0
KMC4 160019Z 11006KT 10/07 A3017 RMK A01 T00980067  RH  081%=      5-min Rain = 0
KMC4 160020Z 11006KT 10/07 A3017 RMK A01 T00980067  RH  081%=      5-min Rain = 0
KMC4 160021Z 11007KT 10/07 A3017 RMK A01 T00970067  RH  081%=      5-min Rain = 0
KMC4 160022Z 11007KT 10/07 A3017 RMK A01 T00970067  RH  081%=      5-min Rain = 0
KMC4 160023Z 11006KT 10/07 A3017 RMK A01 T00970067  RH  082%=      5-min Rain = 0
KMC4 160024Z 11006KT 10/07 A3017 RMK A01 T00970067  RH  082%=      5-min Rain = 0
KMC4 160025Z 10007KT 10/07 A3017 RMK A01 T00970067  RH  082%=      5-min Rain = 0
KMC4 160026Z 10006KT 10/07 A3017 RMK A01 T00960067  RH  082%=      5-min Rain = 0
KMC4 160027Z 10007KT 10/07 A3017 RMK A01 T00960067  RH  082%=      5-min Rain = 0
KMC4 160028Z 10007KT 10/07 A3017 RMK A01 T00960067  RH  082%=      5-min Rain = 0
KMC4 160029Z 10007KT 10/07 A3017 RMK A01 T00960067  RH  082%=      5-min Rain = 0
KMC4 160030Z 10006KT 10/07 A3017 RMK A01 T00960067  RH  082%=      5-min Rain = 0
KMC4 160031Z 10006KT 10/07 A3017 RMK A01 T00960067  RH  082%=      5-min Rain = 0
KMC4 160032Z 10006KT 10/07 A3017 RMK A01 T00960067  RH  082%=      5-min Rain = 0
KMC4 160033Z 10005KT 10/07 A3017 RMK A01 T00960067  RH  083%=      5-min Rain = 0
KMC4 160034Z 10006KT 10/07 A3017 RMK A01 T00960067  RH  083%=      5-min Rain = 0
KMC4 160035Z 10006KT 10/07 A3017 RMK A01 T00960068  RH  083%=      5-min Rain = 0
KMC4 160036Z 10006KT 10/07 A3017 RMK A01 T00960067  RH  083%=      5-min Rain = 0
KMC4 160037Z 10006KT 10/07 A3017 RMK A01 T00950067  RH  083%=      5-min Rain = 0
KMC4 160038Z 10007KT 10/07 A3017 RMK A01 T00950067  RH  083%=      5-min Rain = 0
KMC4 160039Z 10006KT 10/07 A3017 RMK A01 T00950067  RH  083%=      5-min Rain = 0
KMC4 160040Z 10006KT 10/07 A3017 RMK A01 T00950067  RH  083%=      5-min Rain = 0
KMC4 160041Z 10007KT 10/07 A3017 RMK A01 T00950067  RH  083%=      5-min Rain = 0
KMC4 160042Z 10006KT 10/07 A3017 RMK A01 T00950067  RH  083%=      5-min Rain = 0
KMC4 160043Z 10007KT 10/07 A3017 RMK A01 T00950067  RH  083%=      5-min Rain = 0
KMC4 160044Z 10006KT 09/07 A3018 RMK A01 T00940067  RH  083%=      5-min Rain = 0
KMC4 160045Z 10007KT 09/07 A3018 RMK A01 T00940067  RH  083%=      5-min Rain = 0
KMC4 160046Z 10007KT 09/07 A3018 RMK A01 T00930067  RH  083%=      5-min Rain = 0
KMC4 160047Z 10007KT 09/07 A3018 RMK A01 T00930067  RH  084%=      5-min Rain = 0
KMC4 160048Z 10007KT 09/07 A3018 RMK A01 T00930067  RH  084%=      5-min Rain = 0
KMC4 160049Z 10007KT 09/07 A3018 RMK A01 T00930067  RH  084%=      5-min Rain = 0
KMC4 160050Z 10007KT 09/07 A3018 RMK A01 T00920066  RH  084%=      5-min Rain = 0
KMC4 160051Z 10006KT 09/07 A3018 RMK A01 T00920066  RH  084%=      5-min Rain = 0
KMC4 160052Z 10006KT 09/07 A3018 RMK A01 T00920066  RH  084%=      5-min Rain = 0
KMC4 160053Z 10007KT 09/07 A3018 RMK A01 T00910066  RH  084%=      5-min Rain = 0
KMC4 160054Z 10006KT 09/07 A3018 RMK A01 T00910066  RH  085%=      5-min Rain = 0
KMC4 160055Z 10006KT 09/07 A3018 RMK A01 T00910066  RH  085%=      5-min Rain = 0
KMC4 160056Z 10007KT 09/07 A3018 RMK A01 T00900066  RH  085%=      5-min Rain = 0
KMC4 160057Z 10007KT 09/07 A3018 RMK A01 T00900066  RH  085%=      5-min Rain = 0
KMC4 160058Z 10007KT 09/07 A3018 RMK A01 T00900066  RH  085%=      5-min Rain = 0
KMC4 160059Z 10008KT 09/07 A3018 RMK A01 T00900066  RH  085%=      5-min Rain = 0
KMC4 160100Z 10007KT 09/07 A3018 RMK A01 T00900066  RH  085%=      5-min Rain = 0
KMC4 160101Z 10007KT 09/07 A3018 RMK A01 T00890066  RH  085%=      5-min Rain = 0
KMC4 160102Z 09006KT 09/07 A3018 RMK A01 T00890066  RH  085%=      5-min Rain = 0
KMC4 160103Z 10006KT 09/07 A3018 RMK A01 T00890066  RH  086%=      5-min Rain = 0
KMC4 160104Z 09006KT 09/07 A3018 RMK A01 T00880066  RH  086%=      5-min Rain = 0
KMC4 160105Z 09007KT 09/07 A3018 RMK A01 T00880066  RH  086%=      5-min Rain = 0
KMC4 160106Z 09007KT 09/07 A3018 RMK A01 T00880066  RH  086%=      5-min Rain = 0
KMC4 160107Z 09006KT 09/07 A3018 RMK A01 T00880066  RH  086%=      5-min Rain = 0
KMC4 160108Z 09007KT 09/07 A3018 RMK A01 T00880066  RH  086%=      5-min Rain = 0
KMC4 160109Z 09007KT 09/07 A3018 RMK A01 T00880067  RH  086%=      5-min Rain = 0
KMC4 160110Z 09006KT 09/07 A3018 RMK A01 T00880067  RH  087%=      5-min Rain = 0
KMC4 160111Z 09007KT 09/07 A3018 RMK A01 T00880067  RH  087%=      5-min Rain = 0
KMC4 160112Z 09006KT 09/07 A3018 RMK A01 T00880067  RH  087%=      5-min Rain = 0
KMC4 160113Z 09007KT 09/07 A3018 RMK A01 T00880068  RH  087%=      5-min Rain = 0
KMC4 160114Z 09006KT 09/07 A3018 RMK A01 T00880067  RH  087%=      5-min Rain = 0
KMC4 160115Z 09006KT 09/07 A3018 RMK A01 T00880068  RH  087%=      5-min Rain = 0
KMC4 160116Z 09007KT 09/07 A3018 RMK A01 T00880067  RH  087%=      5-min Rain = 0
KMC4 160117Z 09007KT 09/07 A3018 RMK A01 T00880067  RH  087%=      5-min Rain = 0
KMC4 160118Z 09007KT 09/07 A3018 RMK A01 T00880067  RH  087%=      5-min Rain = 0
KMC4 160119Z 09007KT 09/07 A3018 RMK A01 T00880068  RH  087%=      5-min Rain = 0
KMC4 160120Z 09007KT 09/07 A3018 RMK A01 T00880067  RH  087%=      5-min Rain = 0
KMC4 160121Z 08006KT 09/07 A3018 RMK A01 T00880068  RH  087%=      5-min Rain = 0
KMC4 160122Z 09006KT 09/07 A3018 RMK A01 T00880068  RH  087%=      5-min Rain = 0
KMC4 160123Z 09006KT 09/07 A3018 RMK A01 T00880068  RH  087%=      5-min Rain = 0
KMC4 160124Z 09005KT 09/07 A3018 RMK A01 T00870067  RH  087%=      5-min Rain = 0
KMC4 160125Z 08006KT 09/07 A3018 RMK A01 T00880068  RH  087%=      5-min Rain = 0
KMC4 160126Z 08006KT 09/07 A3018 RMK A01 T00870068  RH  088%=      5-min Rain = 0
KMC4 160127Z 09006KT 09/07 A3018 RMK A01 T00870068  RH  088%=      5-min Rain = 0
KMC4 160128Z 09006KT 09/07 A3018 RMK A01 T00880068  RH  088%=      5-min Rain = 0
KMC4 160129Z 09005KT 09/07 A3018 RMK A01 T00880068  RH  087%=      5-min Rain = 0
KMC4 160130Z 08006KT 09/07 A3018 RMK A01 T00880068  RH  087%=      5-min Rain = 0
KMC4 160131Z 08006KT 09/07 A3018 RMK A01 T00870067  RH  087%=      5-min Rain = 0
KMC4 160132Z 07005KT 09/07 A3018 RMK A01 T00870068  RH  088%=      5-min Rain = 0
KMC4 160133Z 08006KT 09/07 A3018 RMK A01 T00870068  RH  088%=      5-min Rain = 0
KMC4 160134Z 08006KT 09/07 A3018 RMK A01 T00870067  RH  088%=      5-min Rain = 0
KMC4 160135Z 08006KT 09/07 A3018 RMK A01 T00860067  RH  087%=      5-min Rain = 0
KMC4 160136Z 09006KT 09/07 A3018 RMK A01 T00870067  RH  087%=      5-min Rain = 0
KMC4 160137Z 08006KT 09/07 A3018 RMK A01 T00870067  RH  088%=      5-min Rain = 0
KMC4 160138Z 09006KT 09/07 A3018 RMK A01 T00870067  RH  087%=      5-min Rain = 0
KMC4 160139Z 09006KT 09/07 A3018 RMK A01 T00870067  RH  087%=      5-min Rain = 0
KMC4 160140Z 09007KT 09/07 A3018 RMK A01 T00870067  RH  087%=      5-min Rain = 0
KMC4 160141Z 09007KT 09/07 A3018 RMK A01 T00870067  RH  087%=      5-min Rain = 0
KMC4 160142Z 10006KT 09/07 A3018 RMK A01 T00870067  RH  087%=      5-min Rain = 0
KMC4 160143Z 10006KT 09/07 A3018 RMK A01 T00870067  RH  087%=      5-min Rain = 0
KMC4 160144Z 10006KT 09/07 A3018 RMK A01 T00870067  RH  088%=      5-min Rain = 0
KMC4 160145Z 10007KT 09/07 A3018 RMK A01 T00860067  RH  088%=      5-min Rain = 0
KMC4 160146Z 10007KT 09/07 A3018 RMK A01 T00860067  RH  088%=      5-min Rain = 0
KMC4 160147Z 10007KT 09/07 A3018 RMK A01 T00860067  RH  088%=      5-min Rain = 0
KMC4 160148Z 10007KT 09/07 A3018 RMK A01 T00860068  RH  088%=      5-min Rain = 0
KMC4 160149Z 10007KT 09/07 A3018 RMK A01 T00860068  RH  088%=      5-min Rain = 0
KMC4 160150Z 10007KT 09/07 A3018 RMK A01 T00860068  RH  089%=      5-min Rain = 0
KMC4 160151Z 09006KT 09/07 A3018 RMK A01 T00860068  RH  089%=      5-min Rain = 0
KMC4 160152Z 09006KT 09/07 A3018 RMK A01 T00860068  RH  088%=      5-min Rain = 0
KMC4 160153Z 09007KT 09/07 A3018 RMK A01 T00860068  RH  088%=      5-min Rain = 0
KMC4 160154Z 09007KT 09/07 A3018 RMK A01 T00860068  RH  088%=      5-min Rain = 0
KMC4 160155Z 09008KT 09/07 A3018 RMK A01 T00860068  RH  088%=      5-min Rain = 0
KMC4 160156Z 10007KT 09/07 A3018 RMK A01 T00860067  RH  088%=      5-min Rain = 0
KMC4 160157Z 10007KT 09/07 A3018 RMK A01 T00860067  RH  088%=      5-min Rain = 0
KMC4 160158Z 10007KT 09/07 A3018 RMK A01 T00860068  RH  088%=      5-min Rain = 0
KMC4 160159Z 11006KT 09/07 A3018 RMK A01 T00860068  RH  088%=      5-min Rain = 0
KMC4 160200Z 10006KT 09/07 A3018 RMK A01 T00860068  RH  088%=      5-min Rain = 0
KMC4 160201Z 10007KT 09/07 A3018 RMK A01 T00860068  RH  088%=      5-min Rain = 0
KMC4 160202Z 09006KT 09/07 A3018 RMK A01 T00860068  RH  089%=      5-min Rain = 0
KMC4 160203Z 09007KT 09/07 A3018 RMK A01 T00850067  RH  088%=      5-min Rain = 0
KMC4 160204Z 10007KT 09/07 A3018 RMK A01 T00850067  RH  089%=      5-min Rain = 0
KMC4 160205Z 09006KT 09/07 A3018 RMK A01 T00850067  RH  089%=      5-min Rain = 0
KMC4 160206Z 09005KT 08/07 A3018 RMK A01 T00840066  RH  089%=      5-min Rain = 0
KMC4 160207Z 10006KT 08/07 A3018 RMK A01 T00830066  RH  089%=      5-min Rain = 0
KMC4 160208Z 09006KT 08/07 A3018 RMK A01 T00830065  RH  089%=      5-min Rain = 0
KMC4 160209Z 10006KT 08/07 A3018 RMK A01 T00820065  RH  089%=      5-min Rain = 0
KMC4 160210Z 10006KT 08/07 A3018 RMK A01 T00810065  RH  089%=      5-min Rain = 0
KMC4 160211Z 10005KT 08/06 A3018 RMK A01 T00800064  RH  089%=      5-min Rain = 0
KMC4 160212Z 10006KT 08/06 A3018 RMK A01 T00800064  RH  090%=      5-min Rain = 0
KMC4 160213Z 10006KT 08/07 A3018 RMK A01 T00800065  RH  090%=      5-min Rain = 0
KMC4 160214Z 10006KT 08/07 A3018 RMK A01 T00800065  RH  090%=      5-min Rain = 0
KMC4 160215Z 10005KT 08/06 A3018 RMK A01 T00800064  RH  090%=      5-min Rain = 0
KMC4 160216Z 10005KT 08/06 A3018 RMK A01 T00790064  RH  090%=      5-min Rain = 0
KMC4 160217Z 09005KT 08/07 A3018 RMK A01 T00790065  RH  090%=      5-min Rain = 0
KMC4 160218Z 10006KT 08/06 A3018 RMK A01 T00790064  RH  090%=      5-min Rain = 0
KMC4 160219Z 10006KT 08/06 A3018 RMK A01 T00790064  RH  090%=      5-min Rain = 0
KMC4 160220Z 10006KT 08/06 A3018 RMK A01 T00790064  RH  091%=      5-min Rain = 0
KMC4 160221Z 10006KT 08/06 A3018 RMK A01 T00790064  RH  090%=      5-min Rain = 0
KMC4 160222Z 10006KT 08/07 A3018 RMK A01 T00790065  RH  090%=      5-min Rain = 0
KMC4 160223Z 10005KT 08/06 A3018 RMK A01 T00780064  RH  091%=      5-min Rain = 0
KMC4 160224Z 10005KT 08/06 A3018 RMK A01 T00790064  RH  091%=      5-min Rain = 0
KMC4 160225Z 10005KT 08/07 A3018 RMK A01 T00790065  RH  091%=      5-min Rain = 0
KMC4 160226Z 11006KT 08/07 A3018 RMK A01 T00780065  RH  091%=      5-min Rain = 0
KMC4 160227Z 10006KT 08/07 A3018 RMK A01 T00790065  RH  091%=      5-min Rain = 0
KMC4 160228Z 10005KT 08/07 A3018 RMK A01 T00790065  RH  091%=      5-min Rain = 0
KMC4 160229Z 10005KT 08/07 A3018 RMK A01 T00790065  RH  091%=      5-min Rain = 0
KMC4 160230Z 10006KT 08/07 A3018 RMK A01 T00790065  RH  091%=      5-min Rain = 0
KMC4 160231Z 10006KT 08/07 A3018 RMK A01 T00790066  RH  091%=      5-min Rain = 0
KMC4 160232Z 10007KT 08/07 A3018 RMK A01 T00790066  RH  091%=      5-min Rain = 0
KMC4 160233Z 11007KT 08/07 A3018 RMK A01 T00790065  RH  091%=      5-min Rain = 0
KMC4 160234Z 11007KT 08/07 A3018 RMK A01 T00790066  RH  091%=      5-min Rain = 0
KMC4 160235Z 11007KT 08/07 A3018 RMK A01 T00790066  RH  091%=      5-min Rain = 0
KMC4 160236Z 11008KT 08/07 A3018 RMK A01 T00790066  RH  091%=      5-min Rain = 0
KMC4 160237Z 11007KT 08/07 A3018 RMK A01 T00790066  RH  091%=      5-min Rain = 0
KMC4 160238Z 11008KT 08/07 A3018 RMK A01 T00800066  RH  091%=      5-min Rain = 0
KMC4 160239Z 10007KT 08/07 A3018 RMK A01 T00790066  RH  091%=      5-min Rain = 0
KMC4 160240Z 10006KT 08/07 A3018 RMK A01 T00790066  RH  091%=      5-min Rain = 0
KMC4 160241Z 10007KT 08/07 A3018 RMK A01 T00790066  RH  091%=      5-min Rain = 0
KMC4 160242Z 10007KT 08/07 A3018 RMK A01 T00790066  RH  092%=      5-min Rain = 0
KMC4 160243Z 10006KT 08/07 A3018 RMK A01 T00780066  RH  092%=      5-min Rain = 0
KMC4 160244Z 10006KT 08/07 A3018 RMK A01 T00780065  RH  092%=      5-min Rain = 0
KMC4 160245Z 10006KT 08/07 A3018 RMK A01 T00780066  RH  092%=      5-min Rain = 0
KMC4 160246Z 11006KT 08/07 A3018 RMK A01 T00780066  RH  092%=      5-min Rain = 0
KMC4 160247Z 10006KT 08/07 A3018 RMK A01 T00780066  RH  092%=      5-min Rain = 0
KMC4 160248Z 10006KT 08/07 A3018 RMK A01 T00770066  RH  092%=      5-min Rain = 0
KMC4 160249Z 10006KT 08/07 A3018 RMK A01 T00770066  RH  092%=      5-min Rain = 0
KMC4 160250Z 10005KT 08/07 A3018 RMK A01 T00770066  RH  092%=      5-min Rain = 0
KMC4 160251Z 10006KT 08/07 A3018 RMK A01 T00770066  RH  092%=      5-min Rain = 0
KMC4 160252Z 10006KT 08/07 A3018 RMK A01 T00770065  RH  093%=      5-min Rain = 0
KMC4 160253Z 10006KT 08/07 A3018 RMK A01 T00770066  RH  093%=      5-min Rain = 0
KMC4 160254Z 11006KT 08/07 A3018 RMK A01 T00770066  RH  093%=      5-min Rain = 0
KMC4 160255Z 10006KT 08/07 A3018 RMK A01 T00770066  RH  093%=      5-min Rain = 0
KMC4 160256Z 10005KT 08/07 A3018 RMK A01 T00770066  RH  093%=      5-min Rain = 0
KMC4 160257Z 11005KT 08/07 A3018 RMK A01 T00760066  RH  093%=      5-min Rain = 0
KMC4 160258Z 11005KT 08/07 A3019 RMK A01 T00760066  RH  093%=      5-min Rain = 0
KMC4 160259Z 11006KT 08/07 A3019 RMK A01 T00760065  RH  093%=      5-min Rain = 0
KMC4 160300Z 11005KT 08/07 A3019 RMK A01 T00760066  RH  093%=      5-min Rain = 0
KMC4 160301Z 11005KT 08/07 A3019 RMK A01 T00760066  RH  093%=      5-min Rain = 0
KMC4 160302Z 11005KT 08/07 A3019 RMK A01 T00760066  RH  093%=      5-min Rain = 0
KMC4 160303Z 11005KT 08/07 A3019 RMK A01 T00760066  RH  093%=      5-min Rain = 0
KMC4 160304Z 11005KT 08/07 A3019 RMK A01 T00760066  RH  093%=      5-min Rain = 0
KMC4 160305Z 11005KT 08/07 A3019 RMK A01 T00760066  RH  093%=      5-min Rain = 0
KMC4 160306Z 11005KT 08/07 A3019 RMK A01 T00760066  RH  093%=      5-min Rain = 0
KMC4 160307Z 11005KT 08/07 A3019 RMK A01 T00750066  RH  094%=      5-min Rain = 0
KMC4 160308Z 11005KT 08/07 A3019 RMK A01 T00750066  RH  094%=      5-min Rain = 0
KMC4 160309Z 11005KT 08/07 A3019 RMK A01 T00750066  RH  094%=      5-min Rain = 0
KMC4 160310Z 11005KT 08/07 A3019 RMK A01 T00750066  RH  094%=      5-min Rain = 0
KMC4 160311Z 10006KT 08/07 A3019 RMK A01 T00750066  RH  094%=      5-min Rain = 0
KMC4 160312Z 10006KT 08/07 A3019 RMK A01 T00750066  RH  094%=      5-min Rain = 0
KMC4 160313Z 11005KT 08/07 A3019 RMK A01 T00750066  RH  094%=      5-min Rain = 0
KMC4 160314Z 10004KT 08/07 A3019 RMK A01 T00750066  RH  094%=      5-min Rain = 0
KMC4 160315Z 10004KT 08/07 A3019 RMK A01 T00750066  RH  094%=      5-min Rain = 0
KMC4 160316Z 09004KT 07/07 A3019 RMK A01 T00740065  RH  094%=      5-min Rain = 0
KMC4 160317Z 09003KT 07/07 A3019 RMK A01 T00740065  RH  094%=      5-min Rain = 0
KMC4 160318Z 08003KT 07/06 A3019 RMK A01 T00730064  RH  094%=      5-min Rain = 0
KMC4 160319Z 09003KT 07/06 A3019 RMK A01 T00730063  RH  094%=      5-min Rain = 0
KMC4 160320Z 10003KT 07/06 A3019 RMK A01 T00720063  RH  094%=      5-min Rain = 0
KMC4 160321Z 09004KT 07/06 A3019 RMK A01 T00720063  RH  094%=      5-min Rain = 0
KMC4 160322Z 10004KT 07/06 A3019 RMK A01 T00710062  RH  094%=      5-min Rain = 0
KMC4 160323Z 09005KT 07/06 A3019 RMK A01 T00710062  RH  094%=      5-min Rain = 0
KMC4 160324Z 08005KT 07/06 A3019 RMK A01 T00710063  RH  095%=      5-min Rain = 0
KMC4 160325Z 08004KT 07/06 A3019 RMK A01 T00710062  RH  094%=      5-min Rain = 0
KMC4 160326Z 09004KT 07/06 A3019 RMK A01 T00690061  RH  094%=      5-min Rain = 0
KMC4 160327Z 09005KT 07/06 A3019 RMK A01 T00690061  RH  094%=      5-min Rain = 0
KMC4 160328Z 08004KT 07/06 A3019 RMK A01 T00680060  RH  095%=      5-min Rain = 0
KMC4 160329Z 08004KT 07/06 A3019 RMK A01 T00690061  RH  095%=      5-min Rain = 0
KMC4 160330Z 08004KT 07/06 A3019 RMK A01 T00680060  RH  095%=      5-min Rain = 0
KMC4 160331Z 08004KT 07/06 A3019 RMK A01 T00680061  RH  095%=      5-min Rain = 0
KMC4 160332Z 08004KT 07/06 A3019 RMK A01 T00680061  RH  095%=      5-min Rain = 0
KMC4 160333Z 08004KT 07/06 A3019 RMK A01 T00680061  RH  095%=      5-min Rain = 0
KMC4 160334Z 09004KT 07/06 A3019 RMK A01 T00680062  RH  095%=      5-min Rain = 0
KMC4 160335Z 09004KT 07/06 A3019 RMK A01 T00680062  RH  096%=      5-min Rain = 0
KMC4 160336Z 09004KT 07/06 A3019 RMK A01 T00680062  RH  096%=      5-min Rain = 0
KMC4 160337Z 09004KT 07/06 A3019 RMK A01 T00680062  RH  095%=      5-min Rain = 0
KMC4 160338Z 09005KT 07/06 A3019 RMK A01 T00690062  RH  095%=      5-min Rain = 0
KMC4 160339Z 10005KT 07/06 A3019 RMK A01 T00680062  RH  096%=      5-min Rain = 0
KMC4 160340Z 10005KT 07/06 A3019 RMK A01 T00680061  RH  096%=      5-min Rain = 0
KMC4 160341Z 10005KT 07/06 A3019 RMK A01 T00680061  RH  096%=      5-min Rain = 0
KMC4 160342Z 10005KT 07/06 A3019 RMK A01 T00680061  RH  096%=      5-min Rain = 0
KMC4 160343Z 10004KT 07/06 A3019 RMK A01 T00670061  RH  096%=      5-min Rain = 0
KMC4 160344Z 10004KT 07/06 A3019 RMK A01 T00670061  RH  096%=      5-min Rain = 0
KMC4 160345Z 10005KT 07/06 A3019 RMK A01 T00670061  RH  096%=      5-min Rain = 0
KMC4 160346Z 10004KT 07/06 A3019 RMK A01 T00670061  RH  096%=      5-min Rain = 0
KMC4 160347Z 09003KT 07/06 A3019 RMK A01 T00670062  RH  096%=      5-min Rain = 0
KMC4 160348Z 09003KT 07/06 A302 RMK A01 T00670062  RH  096%=      5-min Rain = 0
KMC4 160349Z 08003KT 07/06 A302 RMK A01 T00670062  RH  096%=      5-min Rain = 0
KMC4 160350Z 09003KT 07/06 A3019 RMK A01 T00670062  RH  096%=      5-min Rain = 0
KMC4 160351Z 09003KT 07/06 A3019 RMK A01 T00670061  RH  096%=      5-min Rain = 0
KMC4 160352Z 10003KT 07/06 A3019 RMK A01 T00670061  RH  096%=      5-min Rain = 0
KMC4 160353Z 11004KT 07/06 A3019 RMK A01 T00670061  RH  096%=      5-min Rain = 0
KMC4 160354Z 11004KT 07/06 A302 RMK A01 T00670062  RH  096%=      5-min Rain = 0
KMC4 160355Z 11004KT 07/06 A302 RMK A01 T00670061  RH  096%=      5-min Rain = 0
KMC4 160356Z 11004KT 07/06 A302 RMK A01 T00660061  RH  096%=      5-min Rain = 0
KMC4 160357Z 11004KT 07/06 A302 RMK A01 T00660060  RH  096%=      5-min Rain = 0
KMC4 160358Z 11004KT 07/06 A302 RMK A01 T00660060  RH  096%=      5-min Rain = 0
KMC4 160359Z 11004KT 07/06 A302 RMK A01 T00650060  RH  096%=      5-min Rain = 0
KMC4 160400Z 10003KT 07/06 A302 RMK A01 T00650060  RH  096%=      5-min Rain = 0
KMC4 160401Z 10003KT 07/06 A302 RMK A01 T00650060  RH  096%=      5-min Rain = 0
KMC4 160402Z 09003KT 07/06 A302 RMK A01 T00660061  RH  097%=      5-min Rain = 0
KMC4 160403Z 09003KT 07/06 A302 RMK A01 T00660061  RH  097%=      5-min Rain = 0
KMC4 160404Z 09002KT 07/06 A302 RMK A01 T00660061  RH  097%=      5-min Rain = 0
KMC4 160405Z 09002KT 07/06 A302 RMK A01 T00660061  RH  097%=      5-min Rain = 0
KMC4 160406Z 09003KT 07/06 A302 RMK A01 T00660061  RH  097%=      5-min Rain = 0
KMC4 160407Z 09003KT 07/06 A302 RMK A01 T00660061  RH  097%=      5-min Rain = 0
KMC4 160408Z 09003KT 07/06 A302 RMK A01 T00650061  RH  097%=      5-min Rain = 0
KMC4 160409Z 09003KT 07/06 A302 RMK A01 T00650060  RH  097%=      5-min Rain = 0
KMC4 160410Z 09004KT 06/06 A302 RMK A01 T00640059  RH  097%=      5-min Rain = 0
KMC4 160411Z 09004KT 06/06 A302 RMK A01 T00640060  RH  097%=      5-min Rain = 0
KMC4 160412Z 10004KT 07/06 A302 RMK A01 T00650060  RH  097%=      5-min Rain = 0
KMC4 160413Z 09003KT 07/06 A302 RMK A01 T00650060  RH  097%=      5-min Rain = 0
KMC4 160414Z 10004KT 07/06 A302 RMK A01 T00650060  RH  097%=      5-min Rain = 0
KMC4 160415Z 10003KT 07/06 A302 RMK A01 T00650060  RH  097%=      5-min Rain = 0
KMC4 160416Z 10003KT 07/06 A302 RMK A01 T00650061  RH  097%=      5-min Rain = 0
KMC4 160417Z 10003KT 07/06 A302 RMK A01 T00650061  RH  097%=      5-min Rain = 0
KMC4 160418Z 10004KT 07/06 A302 RMK A01 T00660061  RH  097%=      5-min Rain = 0
KMC4 160419Z 10004KT 07/06 A302 RMK A01 T00660062  RH  097%=      5-min Rain = 0
KMC4 160420Z 10004KT 07/06 A302 RMK A01 T00670063  RH  097%=      5-min Rain = 0
KMC4 160421Z 10004KT 07/06 A302 RMK A01 T00670063  RH  097%=      5-min Rain = 0
KMC4 160422Z 10004KT 07/06 A302 RMK A01 T00670063  RH  097%=      5-min Rain = 0
KMC4 160423Z 10004KT 07/06 A302 RMK A01 T00670062  RH  097%=      5-min Rain = 0
KMC4 160424Z 10004KT 07/06 A302 RMK A01 T00670063  RH  097%=      5-min Rain = 0
KMC4 160425Z 09004KT 07/06 A302 RMK A01 T00670063  RH  097%=      5-min Rain = 0
KMC4 160426Z 10004KT 07/06 A302 RMK A01 T00670063  RH  097%=      5-min Rain = 0
KMC4 160427Z 10004KT 07/06 A302 RMK A01 T00670063  RH  097%=      5-min Rain = 0
KMC4 160428Z 10004KT 07/06 A302 RMK A01 T00670063  RH  097%=      5-min Rain = 0
KMC4 160429Z 10003KT 07/06 A302 RMK A01 T00670063  RH  097%=      5-min Rain = 0
KMC4 160430Z 10003KT 07/06 A302 RMK A01 T00670063  RH  097%=      5-min Rain = 0
KMC4 160431Z 10003KT 07/06 A302 RMK A01 T00660062  RH  097%=      5-min Rain = 0
KMC4 160432Z 10003KT 07/06 A302 RMK A01 T00660062  RH  097%=      5-min Rain = 0
KMC4 160433Z 10003KT 07/06 A302 RMK A01 T00660062  RH  097%=      5-min Rain = 0
KMC4 160434Z 10003KT 07/06 A302 RMK A01 T00660062  RH  097%=      5-min Rain = 0
KMC4 160435Z 10004KT 07/06 A302 RMK A01 T00660062  RH  097%=      5-min Rain = 0
KMC4 160436Z 10003KT 07/06 A302 RMK A01 T00660062  RH  097%=      5-min Rain = 0
KMC4 160437Z 10004KT 07/06 A302 RMK A01 T00660062  RH  097%=      5-min Rain = 0
KMC4 160438Z 11004KT 07/06 A302 RMK A01 T00650062  RH  097%=      5-min Rain = 0
KMC4 160439Z 11004KT 07/06 A302 RMK A01 T00650061  RH  097%=      5-min Rain = 0
KMC4 160440Z 11004KT 07/06 A302 RMK A01 T00650062  RH  097%=      5-min Rain = 0
KMC4 160441Z 10004KT 07/06 A302 RMK A01 T00650062  RH  098%=      5-min Rain = 0
KMC4 160442Z 11004KT 07/06 A302 RMK A01 T00660062  RH  098%=      5-min Rain = 0
KMC4 160443Z 11004KT 07/06 A302 RMK A01 T00660062  RH  098%=      5-min Rain = 0
KMC4 160444Z 11004KT 07/06 A302 RMK A01 T00660062  RH  098%=      5-min Rain = 0
KMC4 160445Z 11004KT 07/06 A302 RMK A01 T00660062  RH  098%=      5-min Rain = 0
KMC4 160446Z 11004KT 07/06 A302 RMK A01 T00660062  RH  098%=      5-min Rain = 0
KMC4 160447Z 10005KT 07/06 A302 RMK A01 T00660062  RH  098%=      5-min Rain = 0
KMC4 160448Z 11005KT 07/06 A302 RMK A01 T00660062  RH  098%=      5-min Rain = 0
KMC4 160449Z 11005KT 07/06 A302 RMK A01 T00660062  RH  098%=      5-min Rain = 0
KMC4 160450Z 11005KT 07/06 A302 RMK A01 T00660062  RH  098%=      5-min Rain = 0
KMC4 160451Z 11005KT 07/06 A302 RMK A01 T00660062  RH  098%=      5-min Rain = 0
KMC4 160452Z 11005KT 07/06 A302 RMK A01 T00660062  RH  098%=      5-min Rain = 0
KMC4 160453Z 11005KT 07/06 A302 RMK A01 T00660062  RH  098%=      5-min Rain = 0
KMC4 160454Z 11005KT 07/06 A302 RMK A01 T00660063  RH  098%=      5-min Rain = 0
KMC4 160455Z 11005KT 07/06 A302 RMK A01 T00660063  RH  098%=      5-min Rain = 0
KMC4 160456Z 11005KT 07/06 A302 RMK A01 T00660063  RH  098%=      5-min Rain = 0
KMC4 160457Z 11005KT 07/06 A302 RMK A01 T00660063  RH  098%=      5-min Rain = 0
KMC4 160458Z 11005KT 07/06 A302 RMK A01 T00660063  RH  098%=      5-min Rain = 0
KMC4 160459Z 11005KT 07/06 A302 RMK A01 T00660063  RH  098%=      5-min Rain = 0
KMC4 160500Z 11004KT 07/06 A302 RMK A01 T00660062  RH  098%=      5-min Rain = 0
KMC4 160501Z 11004KT 07/06 A302 RMK A01 T00650062  RH  098%=      5-min Rain = 0
KMC4 160502Z 11004KT 07/06 A302 RMK A01 T00650062  RH  098%=      5-min Rain = 0
KMC4 160503Z 10003KT 07/06 A302 RMK A01 T00650061  RH  098%=      5-min Rain = 0
KMC4 160504Z 09002KT 06/06 A302 RMK A01 T00640061  RH  098%=      5-min Rain = 0
KMC4 160505Z 10003KT 06/06 A302 RMK A01 T00620059  RH  098%=      5-min Rain = 0
KMC4 160506Z 11003KT 06/06 A302 RMK A01 T00610058  RH  098%=      5-min Rain = 0
KMC4 160507Z 10003KT 06/06 A302 RMK A01 T00620058  RH  098%=      5-min Rain = 0
KMC4 160508Z 10003KT 06/06 A302 RMK A01 T00620058  RH  098%=      5-min Rain = 0
KMC4 160509Z 11003KT 06/06 A302 RMK A01 T00620058  RH  098%=      5-min Rain = 0
KMC4 160510Z 10003KT 06/06 A302 RMK A01 T00620058  RH  098%=      5-min Rain = 0
KMC4 160511Z 10003KT 06/06 A302 RMK A01 T00620058  RH  098%=      5-min Rain = 0
KMC4 160512Z 10003KT 06/06 A302 RMK A01 T00610058  RH  098%=      5-min Rain = 0
KMC4 160513Z 10003KT 06/06 A302 RMK A01 T00610058  RH  098%=      5-min Rain = 0
KMC4 160514Z 10003KT 06/06 A302 RMK A01 T00610058  RH  098%=      5-min Rain = 0
KMC4 160515Z 10003KT 06/06 A302 RMK A01 T00610058  RH  098%=      5-min Rain = 0
KMC4 160516Z 10003KT 06/06 A302 RMK A01 T00620059  RH  098%=      5-min Rain = 0
KMC4 160517Z 11003KT 06/06 A302 RMK A01 T00620059  RH  098%=      5-min Rain = 0
KMC4 160518Z 11003KT 06/06 A302 RMK A01 T00610058  RH  098%=      5-min Rain = 0
KMC4 160519Z 11003KT 06/06 A302 RMK A01 T00610058  RH  098%=      5-min Rain = 0
KMC4 160520Z 11003KT 06/06 A302 RMK A01 T00610058  RH  098%=      5-min Rain = 0
KMC4 160521Z 11003KT 06/06 A302 RMK A01 T00610058  RH  098%=      5-min Rain = 0
KMC4 160522Z 10002KT 06/06 A302 RMK A01 T00600058  RH  098%=      5-min Rain = 0
KMC4 160523Z 10003KT 06/06 A302 RMK A01 T00600057  RH  098%=      5-min Rain = 0
KMC4 160524Z 09002KT 06/06 A302 RMK A01 T00600057  RH  098%=      5-min Rain = 0
KMC4 160525Z 10002KT 06/06 A302 RMK A01 T00600057  RH  098%=      5-min Rain = 0
KMC4 160526Z 10002KT 06/06 A302 RMK A01 T00600057  RH  098%=      5-min Rain = 0
KMC4 160527Z 10002KT 06/06 A302 RMK A01 T00600058  RH  098%=      5-min Rain = 0
KMC4 160528Z 10003KT 06/06 A302 RMK A01 T00600057  RH  098%=      5-min Rain = 0
KMC4 160529Z 11003KT 06/06 A302 RMK A01 T00610058  RH  098%=      5-min Rain = 0
KMC4 160530Z 11003KT 06/06 A302 RMK A01 T00610058  RH  098%=      5-min Rain = 0
KMC4 160531Z 11003KT 06/06 A302 RMK A01 T00610059  RH  098%=      5-min Rain = 0
KMC4 160532Z 12004KT 06/06 A302 RMK A01 T00610058  RH  098%=      5-min Rain = 0
KMC4 160533Z 13004KT 06/06 A302 RMK A01 T00610058  RH  098%=      5-min Rain = 0
KMC4 160534Z 13004KT 06/06 A302 RMK A01 T00610058  RH  098%=      5-min Rain = 0
KMC4 160535Z 13004KT 06/06 A302 RMK A01 T00600057  RH  098%=      5-min Rain = 0
KMC4 160536Z 12004KT 06/06 A302 RMK A01 T00590056  RH  098%=      5-min Rain = 0
KMC4 160537Z 12005KT 06/06 A302 RMK A01 T00580055  RH  098%=      5-min Rain = 0
KMC4 160538Z 13005KT 06/06 A302 RMK A01 T00580055  RH  098%=      5-min Rain = 0
KMC4 160539Z 12005KT 06/06 A302 RMK A01 T00580055  RH  098%=      5-min Rain = 0
KMC4 160540Z 12005KT 06/06 A302 RMK A01 T00580055  RH  098%=      5-min Rain = 0
KMC4 160541Z 11004KT 06/06 A302 RMK A01 T00580056  RH  098%=      5-min Rain = 0
KMC4 160542Z 11004KT 06/06 A302 RMK A01 T00590056  RH  098%=      5-min Rain = 0
KMC4 160543Z 11003KT 06/06 A302 RMK A01 T00590057  RH  098%=      5-min Rain = 0
KMC4 160544Z 11004KT 06/06 A302 RMK A01 T00600058  RH  098%=      5-min Rain = 0
KMC4 160545Z 12004KT 06/06 A302 RMK A01 T00600058  RH  098%=      5-min Rain = 0
KMC4 160546Z 11004KT 06/06 A302 RMK A01 T00600058  RH  098%=      5-min Rain = 0
KMC4 160547Z 12003KT 06/06 A302 RMK A01 T00610058  RH  098%=      5-min Rain = 0
KMC4 160548Z 11004KT 06/06 A302 RMK A01 T00610058  RH  098%=      5-min Rain = 0
KMC4 160549Z 12003KT 06/06 A302 RMK A01 T00600058  RH  098%=      5-min Rain = 0
KMC4 160550Z 11003KT 06/06 A302 RMK A01 T00600058  RH  098%=      5-min Rain = 0
KMC4 160551Z 11004KT 06/06 A302 RMK A01 T00610058  RH  099%=      5-min Rain = 0
KMC4 160552Z 11003KT 06/06 A302 RMK A01 T00610059  RH  099%=      5-min Rain = 0
KMC4 160553Z 12003KT 06/06 A302 RMK A01 T00610059  RH  099%=      5-min Rain = 0
KMC4 160554Z 12004KT 06/06 A302 RMK A01 T00610059  RH  099%=      5-min Rain = 0
KMC4 160555Z 12003KT 06/06 A302 RMK A01 T00620060  RH  099%=      5-min Rain = 0
KMC4 160556Z 12004KT 06/06 A302 RMK A01 T00620060  RH  099%=      5-min Rain = 0
KMC4 160557Z 10003KT 06/06 A302 RMK A01 T00610059  RH  099%=      5-min Rain = 0
KMC4 160558Z 11003KT 06/06 A302 RMK A01 T00610059  RH  099%=      5-min Rain = 0
KMC4 160559Z 11003KT 06/06 A302 RMK A01 T00610059  RH  099%=      5-min Rain = 0

Page generated in 0.0379 seconds.